GEFSGL_prec_meanprecacc_060.txt.gz
Total_Precipitation_Accumulation
0.99 1.01 1.00 0.98 0.88 0.87 0.92 0.93 0.91 0.89 0.87 0.79 0.73 0.70 0.75 0.72 0.66 0.70 0.72 0.72 0.78 0.88 0.99 1.07 1.15 1.35 1.57 1.52 1.41 1.26 1.13 1.00 0.83 0.69 0.50 0.33 0.30 0.26 0.23 0.15 0.11 0.12 0.11
0.92 0.95 0.94 0.85 0.80 0.76 0.73 0.71 0.64 0.61 0.60 0.62 0.66 0.61 0.61 0.64 0.63 0.68 0.70 0.69 0.66 0.70 0.75 0.82 0.94 1.19 1.48 1.61 1.62 1.47 1.29 1.14 1.07 0.96 0.69 0.43 0.37 0.40 0.41 0.34 0.23 0.19 0.18
1.00 0.86 0.78 0.74 0.70 0.68 0.59 0.55 0.53 0.48 0.45 0.45 0.53 0.52 0.55 0.60 0.62 0.65 0.66 0.68 0.70 0.74 0.80 0.80 0.80 0.92 1.11 1.27 1.39 1.42 1.34 1.25 1.21 1.05 0.83 0.63 0.52 0.43 0.41 0.36 0.32 0.34 0.29
1.11 1.01 0.86 0.77 0.69 0.63 0.55 0.53 0.51 0.48 0.49 0.53 0.61 0.63 0.59 0.53 0.55 0.62 0.62 0.60 0.62 0.65 0.66 0.68 0.69 0.68 0.77 0.91 1.03 1.14 1.26 1.34 1.33 1.22 1.01 0.74 0.67 0.52 0.44 0.44 0.45 0.47 0.45
1.09 1.07 0.92 0.86 0.78 0.65 0.59 0.60 0.57 0.60 0.56 0.56 0.62 0.70 0.78 0.73 0.69 0.74 0.68 0.64 0.62 0.61 0.61 0.56 0.58 0.57 0.57 0.64 0.69 0.86 1.11 1.29 1.33 1.31 1.21 0.93 0.71 0.57 0.42 0.45 0.51 0.59 0.57
0.75 0.81 0.77 0.69 0.61 0.58 0.57 0.55 0.52 0.50 0.46 0.46 0.48 0.54 0.63 0.67 0.85 0.78 0.59 0.53 0.55 0.58 0.61 0.57 0.54 0.46 0.42 0.45 0.49 0.53 0.70 0.86 1.00 1.05 1.05 0.90 0.75 0.63 0.57 0.51 0.45 0.42 0.42
0.47 0.56 0.55 0.49 0.43 0.40 0.45 0.45 0.43 0.39 0.40 0.37 0.36 0.36 0.41 0.56 0.61 0.44 0.41 0.43 0.50 0.56 0.61 0.61 0.55 0.49 0.45 0.44 0.41 0.38 0.39 0.46 0.56 0.71 0.80 0.81 0.86 0.73 0.61 0.52 0.48 0.43 0.38
0.22 0.26 0.27 0.28 0.27 0.29 0.31 0.32 0.32 0.31 0.30 0.29 0.36 0.42 0.44 0.44 0.47 0.36 0.34 0.41 0.53 0.58 0.55 0.51 0.53 0.52 0.50 0.49 0.39 0.41 0.40 0.42 0.45 0.41 0.53 0.71 0.81 0.90 0.80 0.64 0.58 0.49 0.42
0.06 0.08 0.10 0.12 0.14 0.17 0.18 0.21 0.29 0.33 0.34 0.36 0.47 0.54 0.47 0.39 0.40 0.37 0.41 0.49 0.60 0.68 0.60 0.51 0.53 0.54 0.64 0.59 0.46 0.51 0.49 0.48 0.47 0.52 0.55 0.57 0.59 0.65 0.71 0.65 0.58 0.51 0.44
0.00 0.00 0.01 0.01 0.02 0.05 0.08 0.11 0.17 0.24 0.30 0.37 0.38 0.35 0.36 0.41 0.45 0.39 0.49 0.60 0.68 0.79 0.73 0.64 0.76 0.69 0.64 0.55 0.44 0.57 0.61 0.47 0.42 0.45 0.43 0.40 0.38 0.40 0.47 0.51 0.60 0.61 0.52
0.00 0.00 0.00 0.00 0.00 0.01 0.02 0.03 0.06 0.11 0.14 0.16 0.17 0.20 0.27 0.43 0.48 0.46 0.61 0.66 0.68 0.78 0.78 0.72 0.59 0.65 0.52 0.46 0.42 0.44 0.59 0.47 0.40 0.43 0.42 0.38 0.32 0.30 0.32 0.38 0.45 0.49 0.53
0.00 0.00 0.00 0.00 0.00 0.01 0.01 0.02 0.02 0.04 0.06 0.09 0.12 0.15 0.21 0.28 0.34 0.36 0.43 0.53 0.59 0.68 0.70 0.61 0.50 0.64 0.50 0.37 0.32 0.34 0.45 0.47 0.41 0.45 0.44 0.38 0.32 0.28 0.25 0.27 0.30 0.32 0.34
0.00 0.00 0.00 0.00 0.01 0.01 0.01 0.01 0.02 0.03 0.05 0.07 0.10 0.16 0.22 0.26 0.25 0.25 0.28 0.35 0.45 0.55 0.57 0.60 0.58 0.52 0.37 0.28 0.34 0.37 0.40 0.45 0.47 0.46 0.39 0.28 0.22 0.20 0.23 0.28 0.33 0.35 0.35
0.00 0.00 0.00 0.01 0.01 0.01 0.01 0.02 0.02 0.02 0.05 0.08 0.14 0.19 0.23 0.25 0.24 0.27 0.32 0.34 0.38 0.41 0.43 0.48 0.48 0.39 0.33 0.30 0.32 0.35 0.37 0.42 0.45 0.38 0.26 0.15 0.13 0.14 0.17 0.21 0.29 0.39 0.47
0.00 0.00 0.00 0.01 0.01 0.01 0.01 0.01 0.02 0.02 0.04 0.10 0.13 0.16 0.16 0.16 0.17 0.22 0.33 0.40 0.48 0.54 0.53 0.46 0.45 0.45 0.40 0.35 0.31 0.30 0.30 0.29 0.28 0.25 0.23 0.19 0.16 0.17 0.13 0.11 0.14 0.19 0.26
0.00 0.00 0.00 0.01 0.01 0.01 0.02 0.02 0.01 0.01 0.02 0.04 0.05 0.07 0.12 0.13 0.09 0.10 0.19 0.32 0.46 0.64 0.86 0.82 0.78 0.74 0.67 0.52 0.35 0.24 0.19 0.20 0.21 0.20 0.21 0.20 0.16 0.14 0.13 0.11 0.11 0.12 0.16
0.00 0.00 0.00 0.00 0.01 0.01 0.03 0.06 0.08 0.05 0.01 0.01 0.01 0.04 0.09 0.13 0.11 0.15 0.21 0.25 0.37 0.63 0.97 0.95 0.90 0.75 0.61 0.51 0.35 0.20 0.13 0.12 0.13 0.13 0.14 0.14 0.13 0.11 0.10 0.08 0.07 0.08 0.09
0.00 0.00 0.00 0.01 0.01 0.01 0.02 0.06 0.16 0.21 0.16 0.06 0.01 0.02 0.07 0.13 0.19 0.26 0.35 0.45 0.50 0.60 0.69 0.67 0.58 0.49 0.40 0.28 0.23 0.18 0.10 0.09 0.11 0.11 0.10 0.10 0.08 0.07 0.06 0.06 0.06 0.05 0.05
0.00 0.00 0.02 0.04 0.02 0.01 0.02 0.09 0.14 0.06 0.04 0.06 0.05 0.02 0.02 0.05 0.10 0.16 0.26 0.36 0.37 0.37 0.35 0.29 0.23 0.19 0.17 0.12 0.11 0.10 0.06 0.05 0.06 0.07 0.07 0.07 0.07 0.06 0.05 0.04 0.04 0.05 0.05
0.00 0.00 0.01 0.06 0.06 0.02 0.04 0.08 0.05 0.03 0.04 0.05 0.05 0.03 0.02 0.03 0.06 0.09 0.13 0.15 0.15 0.15 0.13 0.11 0.08 0.05 0.06 0.05 0.03 0.03 0.03 0.03 0.03 0.03 0.04 0.04 0.04 0.04 0.04 0.04 0.04 0.05 0.05
0.00 0.00 0.00 0.02 0.05 0.03 0.03 0.04 0.02 0.02 0.03 0.04 0.03 0.01 0.02 0.05 0.06 0.07 0.06 0.05 0.05 0.05 0.06 0.06 0.03 0.02 0.01 0.01 0.02 0.03 0.03 0.03 0.03 0.03 0.03 0.03 0.03 0.03 0.03 0.03 0.04 0.05 0.05
0.00 0.00 0.00 0.03 0.03 0.02 0.01 0.03 0.04 0.02 0.02 0.02 0.02 0.01 0.03 0.08 0.07 0.04 0.03 0.02 0.02 0.02 0.05 0.07 0.06 0.06 0.02 0.01 0.01 0.01 0.01 0.02 0.02 0.02 0.03 0.03 0.03 0.03 0.02 0.03 0.04 0.05 0.05
0.00 0.00 0.00 0.02 0.03 0.01 0.00 0.01 0.04 0.05 0.03 0.03 0.04 0.02 0.03 0.06 0.07 0.07 0.05 0.05 0.07 0.08 0.05 0.03 0.05 0.05 0.02 0.01 0.01 0.01 0.01 0.01 0.02 0.02 0.02 0.02 0.02 0.02 0.03 0.03 0.04 0.05 0.06
0.00 0.00 0.00 0.01 0.03 0.02 0.02 0.02 0.02 0.02 0.03 0.05 0.05 0.04 0.04 0.06 0.08 0.06 0.04 0.07 0.08 0.07 0.05 0.03 0.02 0.01 0.01 0.01 0.01 0.01 0.01 0.01 0.01 0.01 0.02 0.02 0.03 0.03 0.03 0.04 0.06 0.09 0.14
0.00 0.00 0.00 0.01 0.03 0.02 0.02 0.02 0.01 0.01 0.02 0.05 0.03 0.03 0.02 0.02 0.03 0.02 0.02 0.03 0.04 0.02 0.02 0.01 0.01 0.01 0.00 0.00 0.00 0.00 0.01 0.03 0.04 0.03 0.02 0.02 0.04 0.05 0.05 0.08 0.12 0.15 0.19
0.00 0.00 0.00 0.00 0.01 0.01 0.01 0.01 0.01 0.01 0.02 0.02 0.01 0.03 0.02 0.02 0.02 0.01 0.01 0.01 0.01 0.01 0.01 0.00 0.00 0.00 0.00 0.00 0.00 0.00 0.01 0.02 0.03 0.03 0.02 0.03 0.04 0.04 0.06 0.07 0.09 0.11 0.15

GEFSGL_prec_meanprecacc_066.txt.gz
Total_Precipitation_Accumulation
0.99 1.01 1.00 0.98 0.90 0.88 0.93 0.95 0.94 0.93 0.93 0.87 0.80 0.74 0.79 0.77 0.72 0.76 0.79 0.81 0.87 0.98 1.10 1.19 1.30 1.53 1.78 1.75 1.62 1.45 1.30 1.15 0.94 0.78 0.58 0.40 0.37 0.32 0.29 0.20 0.17 0.19 0.19
0.92 0.95 0.94 0.85 0.80 0.77 0.75 0.72 0.65 0.63 0.64 0.70 0.76 0.69 0.66 0.69 0.68 0.73 0.78 0.79 0.76 0.79 0.87 0.95 1.06 1.33 1.66 1.83 1.85 1.70 1.50 1.33 1.22 1.09 0.80 0.52 0.45 0.47 0.48 0.41 0.29 0.25 0.25
1.00 0.86 0.78 0.74 0.70 0.69 0.60 0.56 0.54 0.49 0.48 0.51 0.58 0.57 0.61 0.65 0.67 0.69 0.71 0.74 0.78 0.82 0.91 0.92 0.90 1.04 1.25 1.46 1.60 1.65 1.60 1.52 1.44 1.24 1.02 0.79 0.65 0.55 0.52 0.45 0.40 0.41 0.36
1.11 1.01 0.86 0.77 0.69 0.63 0.55 0.53 0.51 0.49 0.49 0.55 0.65 0.67 0.62 0.57 0.59 0.66 0.67 0.65 0.67 0.72 0.75 0.79 0.81 0.78 0.88 1.04 1.20 1.33 1.47 1.59 1.59 1.44 1.23 0.95 0.85 0.67 0.55 0.53 0.53 0.54 0.51
1.09 1.07 0.92 0.86 0.78 0.65 0.59 0.60 0.57 0.60 0.56 0.56 0.64 0.72 0.80 0.76 0.72 0.77 0.71 0.67 0.66 0.66 0.68 0.66 0.70 0.68 0.67 0.74 0.81 1.01 1.28 1.48 1.52 1.50 1.39 1.11 0.87 0.71 0.53 0.52 0.58 0.66 0.63
0.75 0.81 0.77 0.69 0.61 0.58 0.57 0.55 0.52 0.50 0.47 0.46 0.48 0.55 0.64 0.68 0.87 0.80 0.62 0.55 0.58 0.63 0.68 0.66 0.65 0.57 0.55 0.57 0.62 0.67 0.86 1.04 1.17 1.20 1.19 1.04 0.87 0.73 0.65 0.58 0.51 0.47 0.49
0.47 0.56 0.55 0.49 0.43 0.40 0.45 0.45 0.43 0.39 0.40 0.37 0.36 0.36 0.41 0.56 0.63 0.46 0.43 0.46 0.55 0.63 0.69 0.69 0.66 0.61 0.59 0.58 0.56 0.54 0.55 0.63 0.73 0.87 0.94 0.92 0.95 0.81 0.69 0.58 0.53 0.48 0.42
0.22 0.26 0.27 0.28 0.27 0.29 0.31 0.32 0.33 0.32 0.30 0.29 0.36 0.43 0.44 0.45 0.49 0.39 0.37 0.45 0.60 0.70 0.67 0.61 0.64 0.65 0.66 0.65 0.55 0.58 0.53 0.54 0.57 0.54 0.65 0.83 0.91 0.98 0.87 0.71 0.65 0.56 0.49
0.06 0.08 0.10 0.12 0.14 0.17 0.18 0.21 0.30 0.33 0.34 0.37 0.47 0.54 0.47 0.39 0.42 0.41 0.45 0.57 0.67 0.75 0.70 0.66 0.68 0.69 0.81 0.76 0.60 0.65 0.61 0.59 0.56 0.62 0.67 0.70 0.71 0.74 0.78 0.72 0.64 0.57 0.50
0.00 0.00 0.01 0.01 0.02 0.05 0.08 0.11 0.17 0.24 0.31 0.38 0.39 0.36 0.36 0.42 0.47 0.43 0.52 0.69 0.78 0.87 0.82 0.78 0.94 0.86 0.81 0.71 0.59 0.68 0.70 0.56 0.50 0.54 0.52 0.49 0.47 0.48 0.55 0.58 0.66 0.66 0.57
0.00 0.00 0.00 0.00 0.00 0.01 0.02 0.03 0.06 0.11 0.15 0.17 0.18 0.21 0.27 0.44 0.49 0.48 0.66 0.73 0.77 0.90 0.90 0.83 0.73 0.83 0.70 0.61 0.56 0.56 0.67 0.53 0.47 0.51 0.48 0.43 0.38 0.36 0.38 0.44 0.50 0.55 0.57
0.00 0.00 0.00 0.00 0.00 0.01 0.01 0.02 0.02 0.04 0.06 0.09 0.12 0.15 0.21 0.29 0.36 0.39 0.50 0.61 0.67 0.81 0.84 0.73 0.62 0.80 0.67 0.51 0.44 0.44 0.54 0.55 0.47 0.51 0.50 0.44 0.38 0.34 0.30 0.32 0.35 0.36 0.37
0.00 0.00 0.00 0.00 0.01 0.01 0.01 0.01 0.02 0.03 0.06 0.07 0.11 0.17 0.23 0.27 0.27 0.30 0.36 0.43 0.53 0.66 0.68 0.71 0.70 0.65 0.51 0.39 0.44 0.46 0.47 0.50 0.52 0.51 0.44 0.33 0.27 0.26 0.27 0.33 0.39 0.40 0.38
0.00 0.00 0.00 0.01 0.01 0.01 0.01 0.02 0.02 0.02 0.05 0.08 0.15 0.21 0.24 0.26 0.26 0.31 0.38 0.39 0.45 0.50 0.52 0.56 0.56 0.47 0.41 0.38 0.40 0.43 0.44 0.46 0.49 0.43 0.32 0.21 0.17 0.18 0.21 0.25 0.34 0.43 0.50
0.00 0.00 0.00 0.01 0.01 0.01 0.01 0.01 0.02 0.02 0.04 0.10 0.13 0.16 0.17 0.19 0.22 0.28 0.38 0.44 0.53 0.59 0.59 0.51 0.49 0.49 0.44 0.38 0.37 0.36 0.34 0.33 0.32 0.31 0.28 0.24 0.21 0.20 0.16 0.14 0.18 0.22 0.28
0.00 0.00 0.00 0.01 0.01 0.01 0.02 0.02 0.01 0.01 0.02 0.04 0.05 0.07 0.13 0.15 0.12 0.13 0.22 0.35 0.50 0.68 0.89 0.85 0.80 0.76 0.68 0.53 0.37 0.26 0.22 0.24 0.25 0.25 0.25 0.24 0.20 0.17 0.15 0.13 0.12 0.14 0.17
0.00 0.00 0.00 0.00 0.01 0.01 0.03 0.06 0.08 0.05 0.01 0.01 0.01 0.04 0.09 0.14 0.13 0.16 0.22 0.26 0.38 0.65 0.98 0.96 0.91 0.76 0.62 0.52 0.37 0.21 0.14 0.15 0.17 0.16 0.16 0.16 0.14 0.12 0.10 0.09 0.07 0.08 0.09
0.00 0.00 0.00 0.01 0.01 0.01 0.02 0.06 0.16 0.21 0.16 0.06 0.01 0.02 0.07 0.13 0.19 0.26 0.35 0.45 0.50 0.61 0.69 0.67 0.59 0.49 0.41 0.29 0.24 0.18 0.11 0.10 0.12 0.12 0.11 0.10 0.09 0.07 0.06 0.07 0.06 0.05 0.05
0.00 0.00 0.02 0.04 0.02 0.01 0.02 0.09 0.14 0.06 0.04 0.06 0.05 0.02 0.02 0.05 0.10 0.17 0.26 0.36 0.37 0.37 0.35 0.29 0.23 0.19 0.17 0.12 0.11 0.10 0.06 0.05 0.06 0.07 0.08 0.08 0.07 0.06 0.05 0.04 0.04 0.05 0.05
0.00 0.00 0.01 0.06 0.06 0.02 0.04 0.08 0.05 0.03 0.04 0.05 0.05 0.03 0.02 0.03 0.06 0.09 0.13 0.15 0.15 0.15 0.13 0.11 0.08 0.05 0.06 0.05 0.03 0.03 0.03 0.03 0.03 0.03 0.04 0.04 0.04 0.04 0.04 0.04 0.04 0.05 0.05
0.00 0.00 0.00 0.02 0.05 0.03 0.03 0.04 0.02 0.02 0.03 0.04 0.03 0.01 0.02 0.05 0.06 0.07 0.06 0.05 0.05 0.05 0.06 0.06 0.03 0.02 0.01 0.01 0.02 0.03 0.03 0.03 0.03 0.03 0.03 0.04 0.03 0.03 0.03 0.03 0.04 0.05 0.05
0.00 0.00 0.00 0.03 0.03 0.02 0.01 0.03 0.04 0.02 0.02 0.02 0.02 0.01 0.03 0.08 0.07 0.04 0.03 0.02 0.02 0.02 0.05 0.07 0.06 0.06 0.02 0.01 0.01 0.01 0.01 0.02 0.02 0.02 0.03 0.03 0.03 0.03 0.02 0.03 0.04 0.05 0.05
0.00 0.00 0.00 0.02 0.03 0.01 0.00 0.01 0.04 0.05 0.03 0.03 0.04 0.02 0.03 0.06 0.07 0.07 0.05 0.05 0.07 0.08 0.05 0.03 0.05 0.05 0.02 0.01 0.01 0.01 0.01 0.01 0.02 0.02 0.02 0.02 0.02 0.02 0.03 0.03 0.04 0.05 0.06
0.00 0.00 0.00 0.01 0.03 0.02 0.02 0.02 0.02 0.02 0.03 0.05 0.05 0.04 0.04 0.06 0.08 0.06 0.04 0.07 0.08 0.07 0.05 0.03 0.02 0.01 0.01 0.01 0.01 0.01 0.01 0.01 0.01 0.01 0.02 0.02 0.03 0.03 0.03 0.04 0.06 0.09 0.14
0.00 0.00 0.00 0.01 0.03 0.02 0.02 0.02 0.01 0.01 0.02 0.05 0.03 0.03 0.02 0.02 0.03 0.02 0.02 0.03 0.04 0.02 0.02 0.01 0.01 0.01 0.00 0.00 0.00 0.00 0.01 0.03 0.04 0.03 0.02 0.02 0.04 0.05 0.05 0.08 0.12 0.15 0.19
0.00 0.00 0.00 0.00 0.01 0.01 0.01 0.01 0.01 0.01 0.02 0.02 0.01 0.03 0.02 0.02 0.02 0.01 0.01 0.01 0.01 0.01 0.01 0.00 0.00 0.00 0.00 0.00 0.00 0.00 0.01 0.02 0.03 0.03 0.02 0.03 0.04 0.04 0.06 0.07 0.09 0.11 0.15

GEFSGL_prec_meanprecacc_072.txt.gz
Total_Precipitation_Accumulation
0.99 1.01 1.00 0.99 0.90 0.89 0.94 0.95 0.94 0.94 0.96 0.93 0.84 0.76 0.82 0.81 0.76 0.80 0.84 0.87 0.94 1.06 1.19 1.28 1.39 1.64 1.92 1.90 1.81 1.66 1.49 1.29 1.06 0.89 0.66 0.46 0.42 0.39 0.35 0.26 0.24 0.26 0.24
0.92 0.95 0.94 0.85 0.81 0.77 0.76 0.73 0.66 0.63 0.66 0.73 0.79 0.72 0.71 0.73 0.72 0.77 0.81 0.82 0.82 0.87 0.95 1.04 1.15 1.44 1.78 1.96 2.02 1.91 1.74 1.54 1.37 1.22 0.90 0.60 0.51 0.54 0.55 0.48 0.35 0.31 0.31
1.00 0.86 0.78 0.74 0.71 0.69 0.61 0.57 0.55 0.49 0.49 0.53 0.60 0.59 0.65 0.70 0.72 0.73 0.74 0.78 0.81 0.87 0.98 1.01 0.99 1.14 1.35 1.56 1.73 1.81 1.80 1.75 1.66 1.42 1.18 0.92 0.76 0.65 0.62 0.55 0.49 0.49 0.44
1.11 1.01 0.86 0.77 0.70 0.64 0.56 0.54 0.51 0.49 0.50 0.56 0.67 0.71 0.66 0.60 0.63 0.72 0.73 0.69 0.70 0.75 0.80 0.85 0.89 0.89 1.01 1.15 1.29 1.44 1.63 1.80 1.84 1.70 1.45 1.18 1.04 0.83 0.71 0.70 0.71 0.70 0.66
1.09 1.07 0.92 0.86 0.78 0.65 0.60 0.60 0.57 0.61 0.56 0.57 0.67 0.78 0.84 0.78 0.74 0.79 0.75 0.71 0.70 0.70 0.72 0.71 0.76 0.76 0.77 0.87 0.92 1.10 1.41 1.64 1.73 1.76 1.66 1.38 1.16 0.95 0.71 0.67 0.73 0.84 0.84
0.75 0.81 0.77 0.69 0.61 0.58 0.57 0.55 0.52 0.50 0.47 0.46 0.49 0.56 0.65 0.70 0.89 0.83 0.64 0.59 0.63 0.68 0.73 0.71 0.71 0.65 0.63 0.65 0.72 0.79 0.99 1.19 1.34 1.40 1.41 1.29 1.15 1.00 0.88 0.79 0.69 0.64 0.67
0.47 0.56 0.55 0.49 0.43 0.40 0.45 0.45 0.43 0.39 0.40 0.37 0.36 0.36 0.42 0.57 0.64 0.48 0.46 0.49 0.59 0.67 0.73 0.74 0.72 0.67 0.68 0.68 0.66 0.65 0.68 0.77 0.90 1.06 1.13 1.10 1.15 1.05 0.91 0.80 0.73 0.64 0.56
0.22 0.26 0.27 0.28 0.27 0.29 0.31 0.32 0.33 0.32 0.30 0.29 0.36 0.43 0.44 0.45 0.50 0.40 0.39 0.48 0.64 0.74 0.72 0.65 0.70 0.72 0.76 0.79 0.69 0.71 0.67 0.67 0.71 0.71 0.84 1.02 1.10 1.19 1.10 0.93 0.84 0.73 0.63
0.06 0.08 0.10 0.12 0.14 0.17 0.18 0.21 0.30 0.33 0.34 0.37 0.48 0.55 0.48 0.40 0.43 0.43 0.47 0.61 0.72 0.79 0.73 0.71 0.76 0.78 0.90 0.92 0.81 0.84 0.79 0.75 0.72 0.79 0.86 0.92 0.95 0.99 1.03 0.94 0.84 0.73 0.64
0.00 0.00 0.01 0.01 0.02 0.05 0.08 0.11 0.17 0.24 0.31 0.38 0.40 0.37 0.37 0.42 0.47 0.45 0.54 0.72 0.83 0.92 0.87 0.84 1.02 0.98 0.93 0.85 0.80 0.90 0.89 0.73 0.64 0.68 0.70 0.72 0.71 0.73 0.79 0.78 0.80 0.79 0.68
0.00 0.00 0.00 0.00 0.00 0.01 0.02 0.03 0.06 0.11 0.15 0.17 0.18 0.21 0.28 0.44 0.50 0.50 0.68 0.77 0.82 0.96 0.97 0.91 0.85 0.98 0.89 0.80 0.77 0.77 0.87 0.72 0.65 0.66 0.63 0.60 0.59 0.59 0.60 0.62 0.64 0.67 0.66
0.00 0.00 0.00 0.00 0.00 0.01 0.01 0.02 0.02 0.04 0.06 0.10 0.12 0.15 0.21 0.29 0.36 0.41 0.54 0.65 0.72 0.89 0.94 0.84 0.75 0.97 0.90 0.76 0.67 0.66 0.74 0.74 0.69 0.71 0.66 0.58 0.54 0.52 0.48 0.47 0.47 0.48 0.49
0.00 0.00 0.00 0.00 0.01 0.01 0.01 0.01 0.02 0.03 0.06 0.07 0.11 0.17 0.23 0.27 0.28 0.33 0.40 0.48 0.58 0.76 0.81 0.82 0.84 0.86 0.74 0.64 0.70 0.68 0.66 0.68 0.71 0.72 0.61 0.46 0.41 0.39 0.40 0.44 0.48 0.49 0.47
0.00 0.00 0.00 0.01 0.01 0.01 0.01 0.02 0.02 0.02 0.05 0.08 0.15 0.21 0.24 0.27 0.28 0.33 0.40 0.44 0.52 0.59 0.61 0.65 0.69 0.66 0.63 0.60 0.61 0.65 0.64 0.64 0.67 0.60 0.46 0.34 0.32 0.31 0.31 0.34 0.41 0.50 0.57
0.00 0.00 0.00 0.01 0.01 0.01 0.01 0.01 0.02 0.02 0.04 0.10 0.14 0.17 0.18 0.20 0.23 0.29 0.41 0.48 0.58 0.67 0.66 0.58 0.59 0.60 0.59 0.54 0.51 0.52 0.52 0.48 0.47 0.44 0.40 0.37 0.34 0.31 0.26 0.22 0.25 0.27 0.32
0.00 0.00 0.00 0.01 0.01 0.01 0.02 0.02 0.01 0.01 0.02 0.04 0.05 0.08 0.14 0.16 0.13 0.14 0.24 0.38 0.53 0.73 0.93 0.90 0.88 0.84 0.75 0.62 0.47 0.36 0.32 0.34 0.35 0.35 0.34 0.33 0.29 0.27 0.24 0.19 0.18 0.19 0.20
0.00 0.00 0.00 0.00 0.01 0.01 0.03 0.06 0.08 0.05 0.01 0.01 0.01 0.04 0.10 0.14 0.13 0.16 0.22 0.26 0.39 0.67 1.01 1.00 0.95 0.80 0.65 0.57 0.43 0.27 0.19 0.20 0.24 0.21 0.21 0.22 0.21 0.20 0.20 0.16 0.13 0.12 0.12
0.00 0.00 0.00 0.01 0.01 0.01 0.02 0.06 0.16 0.21 0.16 0.06 0.01 0.02 0.07 0.14 0.19 0.26 0.35 0.45 0.50 0.61 0.71 0.68 0.60 0.51 0.42 0.31 0.26 0.21 0.13 0.13 0.17 0.16 0.14 0.14 0.12 0.12 0.14 0.14 0.11 0.08 0.07
0.00 0.00 0.02 0.04 0.02 0.01 0.02 0.09 0.14 0.06 0.04 0.06 0.05 0.02 0.02 0.05 0.10 0.17 0.27 0.36 0.37 0.38 0.35 0.29 0.24 0.20 0.17 0.13 0.12 0.11 0.07 0.07 0.09 0.11 0.11 0.10 0.08 0.08 0.09 0.09 0.09 0.08 0.07
0.00 0.00 0.01 0.06 0.06 0.02 0.04 0.08 0.05 0.03 0.04 0.05 0.05 0.03 0.02 0.03 0.06 0.09 0.13 0.15 0.15 0.15 0.14 0.11 0.08 0.06 0.06 0.05 0.04 0.04 0.03 0.04 0.04 0.06 0.06 0.06 0.06 0.05 0.05 0.05 0.06 0.06 0.06
0.00 0.00 0.00 0.02 0.05 0.03 0.03 0.04 0.02 0.02 0.03 0.04 0.03 0.01 0.02 0.05 0.06 0.07 0.06 0.05 0.05 0.05 0.07 0.06 0.04 0.02 0.01 0.01 0.02 0.04 0.04 0.04 0.04 0.05 0.05 0.04 0.04 0.04 0.04 0.04 0.05 0.05 0.05
0.00 0.00 0.00 0.03 0.03 0.02 0.01 0.03 0.04 0.02 0.02 0.02 0.02 0.01 0.03 0.08 0.07 0.04 0.03 0.02 0.02 0.02 0.06 0.07 0.06 0.06 0.02 0.01 0.01 0.02 0.02 0.02 0.02 0.03 0.03 0.04 0.04 0.03 0.03 0.04 0.05 0.05 0.05
0.00 0.00 0.00 0.02 0.03 0.01 0.00 0.01 0.04 0.05 0.03 0.03 0.04 0.02 0.03 0.06 0.07 0.07 0.05 0.05 0.07 0.08 0.05 0.03 0.05 0.05 0.03 0.01 0.01 0.01 0.01 0.01 0.02 0.02 0.02 0.02 0.02 0.03 0.03 0.03 0.04 0.05 0.06
0.00 0.00 0.00 0.01 0.03 0.02 0.02 0.02 0.02 0.02 0.03 0.05 0.05 0.04 0.04 0.06 0.08 0.06 0.04 0.07 0.08 0.07 0.05 0.03 0.02 0.01 0.01 0.01 0.01 0.01 0.01 0.01 0.01 0.02 0.02 0.02 0.03 0.04 0.04 0.04 0.06 0.10 0.14
0.00 0.00 0.00 0.01 0.03 0.02 0.02 0.02 0.01 0.01 0.02 0.05 0.03 0.03 0.02 0.02 0.03 0.02 0.02 0.03 0.04 0.02 0.02 0.01 0.01 0.01 0.00 0.00 0.00 0.00 0.01 0.03 0.04 0.03 0.02 0.02 0.04 0.05 0.06 0.08 0.12 0.15 0.19
0.00 0.00 0.00 0.00 0.01 0.01 0.01 0.01 0.01 0.01 0.02 0.02 0.02 0.03 0.03 0.02 0.02 0.02 0.01 0.01 0.01 0.01 0.01 0.01 0.00 0.00 0.00 0.00 0.00 0.00 0.01 0.02 0.04 0.03 0.03 0.03 0.04 0.05 0.06 0.07 0.09 0.11 0.15

GEFSGL_prec_meanprecacc_078.txt.gz
Total_Precipitation_Accumulation
0.99 1.01 1.00 0.99 0.90 0.89 0.94 0.95 0.94 0.95 0.98 0.96 0.87 0.81 0.86 0.85 0.80 0.85 0.90 0.95 1.03 1.15 1.27 1.36 1.49 1.75 2.05 2.05 1.98 1.82 1.62 1.43 1.18 1.03 0.82 0.61 0.65 0.65 0.60 0.46 0.42 0.39 0.31
0.92 0.95 0.94 0.85 0.81 0.77 0.76 0.73 0.66 0.64 0.67 0.75 0.82 0.77 0.75 0.77 0.77 0.81 0.84 0.88 0.89 0.96 1.03 1.13 1.25 1.55 1.92 2.11 2.17 2.05 1.87 1.67 1.49 1.34 1.03 0.73 0.66 0.74 0.79 0.73 0.57 0.49 0.43
1.00 0.86 0.78 0.74 0.71 0.69 0.61 0.57 0.55 0.50 0.50 0.54 0.62 0.62 0.70 0.76 0.78 0.79 0.79 0.83 0.86 0.93 1.05 1.08 1.09 1.26 1.47 1.71 1.89 1.96 1.92 1.88 1.80 1.56 1.30 1.03 0.87 0.80 0.84 0.79 0.72 0.70 0.61
1.11 1.01 0.86 0.77 0.70 0.64 0.57 0.54 0.51 0.49 0.51 0.57 0.69 0.74 0.68 0.64 0.68 0.78 0.79 0.74 0.74 0.79 0.85 0.92 0.98 0.99 1.12 1.30 1.45 1.61 1.78 1.95 1.98 1.83 1.58 1.31 1.16 0.95 0.89 0.88 0.90 0.87 0.80
1.09 1.07 0.92 0.86 0.78 0.65 0.60 0.60 0.58 0.61 0.57 0.58 0.69 0.80 0.86 0.80 0.76 0.82 0.78 0.75 0.75 0.75 0.78 0.77 0.83 0.84 0.86 1.00 1.07 1.28 1.57 1.80 1.87 1.90 1.79 1.52 1.29 1.09 0.84 0.80 0.88 1.01 1.00
0.75 0.81 0.77 0.69 0.61 0.58 0.57 0.55 0.52 0.51 0.47 0.47 0.50 0.58 0.67 0.71 0.90 0.83 0.66 0.62 0.66 0.72 0.77 0.77 0.77 0.70 0.68 0.70 0.80 0.93 1.18 1.36 1.47 1.51 1.52 1.40 1.24 1.10 1.00 0.91 0.84 0.81 0.85
0.47 0.56 0.55 0.49 0.43 0.40 0.45 0.45 0.43 0.39 0.40 0.38 0.37 0.37 0.44 0.59 0.65 0.49 0.46 0.51 0.62 0.72 0.78 0.81 0.77 0.71 0.74 0.73 0.71 0.70 0.76 0.90 1.08 1.23 1.26 1.20 1.25 1.14 1.02 0.93 0.88 0.80 0.72
0.22 0.26 0.27 0.28 0.27 0.29 0.31 0.32 0.33 0.32 0.30 0.29 0.36 0.44 0.45 0.47 0.51 0.41 0.40 0.50 0.68 0.79 0.77 0.72 0.76 0.78 0.81 0.85 0.76 0.78 0.73 0.72 0.79 0.83 0.97 1.16 1.26 1.36 1.27 1.12 1.07 0.99 0.89
0.06 0.08 0.10 0.12 0.14 0.17 0.18 0.21 0.30 0.33 0.34 0.37 0.48 0.56 0.49 0.41 0.44 0.44 0.49 0.65 0.77 0.84 0.80 0.77 0.82 0.84 0.97 0.98 0.87 0.91 0.88 0.83 0.80 0.90 0.98 1.06 1.11 1.19 1.25 1.18 1.10 1.02 0.95
0.00 0.00 0.01 0.01 0.02 0.05 0.08 0.11 0.17 0.24 0.31 0.38 0.40 0.37 0.37 0.43 0.48 0.46 0.56 0.76 0.88 0.99 0.94 0.91 1.07 1.01 0.96 0.89 0.86 0.99 0.98 0.81 0.71 0.75 0.80 0.84 0.85 0.91 0.99 0.97 0.99 0.99 0.90
0.00 0.00 0.00 0.00 0.00 0.01 0.02 0.03 0.06 0.11 0.15 0.17 0.19 0.22 0.29 0.45 0.50 0.51 0.70 0.79 0.85 1.00 1.02 0.97 0.89 0.99 0.91 0.82 0.83 0.88 1.01 0.86 0.76 0.77 0.76 0.75 0.75 0.76 0.78 0.82 0.84 0.85 0.82
0.00 0.00 0.00 0.00 0.00 0.01 0.01 0.02 0.02 0.04 0.06 0.10 0.12 0.16 0.22 0.30 0.37 0.42 0.55 0.67 0.74 0.91 0.99 0.89 0.79 0.99 0.92 0.81 0.75 0.76 0.87 0.90 0.83 0.86 0.82 0.75 0.70 0.67 0.63 0.65 0.69 0.70 0.68
0.00 0.00 0.00 0.00 0.01 0.01 0.01 0.01 0.02 0.03 0.06 0.07 0.11 0.17 0.23 0.27 0.28 0.34 0.41 0.49 0.61 0.79 0.85 0.86 0.86 0.89 0.78 0.71 0.80 0.80 0.79 0.83 0.89 0.90 0.77 0.61 0.55 0.53 0.54 0.61 0.69 0.71 0.69
0.00 0.00 0.00 0.01 0.01 0.01 0.01 0.02 0.02 0.02 0.05 0.08 0.15 0.21 0.24 0.27 0.28 0.34 0.42 0.46 0.55 0.64 0.66 0.70 0.73 0.69 0.67 0.67 0.71 0.79 0.81 0.83 0.85 0.79 0.67 0.52 0.47 0.47 0.49 0.52 0.60 0.69 0.77
0.00 0.00 0.00 0.01 0.01 0.01 0.01 0.01 0.02 0.02 0.04 0.10 0.14 0.17 0.18 0.20 0.23 0.30 0.41 0.49 0.60 0.70 0.71 0.65 0.67 0.66 0.65 0.62 0.63 0.65 0.67 0.64 0.63 0.62 0.58 0.55 0.53 0.51 0.46 0.44 0.46 0.46 0.49
0.00 0.00 0.00 0.01 0.01 0.01 0.02 0.02 0.01 0.01 0.02 0.04 0.05 0.08 0.14 0.16 0.13 0.14 0.24 0.38 0.54 0.74 0.95 0.97 0.98 0.91 0.81 0.70 0.58 0.49 0.44 0.46 0.49 0.51 0.52 0.49 0.48 0.47 0.45 0.40 0.41 0.41 0.40
0.00 0.00 0.00 0.00 0.01 0.01 0.03 0.06 0.08 0.05 0.01 0.01 0.01 0.04 0.10 0.14 0.13 0.16 0.22 0.27 0.39 0.67 1.02 1.03 1.01 0.86 0.71 0.63 0.50 0.35 0.29 0.30 0.35 0.35 0.38 0.39 0.37 0.38 0.39 0.37 0.32 0.32 0.32
0.00 0.00 0.00 0.01 0.01 0.01 0.02 0.06 0.16 0.21 0.16 0.06 0.01 0.02 0.07 0.14 0.19 0.26 0.35 0.45 0.51 0.63 0.72 0.71 0.63 0.54 0.46 0.36 0.32 0.27 0.21 0.22 0.26 0.26 0.27 0.28 0.26 0.27 0.29 0.32 0.29 0.26 0.23
0.00 0.00 0.02 0.04 0.02 0.01 0.02 0.09 0.14 0.06 0.04 0.06 0.05 0.02 0.02 0.05 0.10 0.17 0.27 0.37 0.39 0.40 0.38 0.32 0.26 0.21 0.19 0.16 0.17 0.17 0.14 0.14 0.16 0.18 0.19 0.20 0.19 0.19 0.22 0.24 0.25 0.24 0.21
0.00 0.00 0.01 0.06 0.06 0.02 0.04 0.08 0.05 0.03 0.04 0.05 0.05 0.03 0.02 0.03 0.07 0.10 0.13 0.16 0.16 0.17 0.15 0.13 0.11 0.08 0.08 0.07 0.07 0.08 0.08 0.09 0.10 0.11 0.12 0.14 0.15 0.14 0.15 0.16 0.18 0.20 0.18
0.00 0.00 0.00 0.02 0.05 0.03 0.03 0.04 0.02 0.02 0.03 0.04 0.03 0.01 0.02 0.06 0.07 0.07 0.07 0.06 0.07 0.07 0.08 0.08 0.06 0.05 0.03 0.03 0.05 0.07 0.08 0.09 0.09 0.10 0.10 0.10 0.11 0.12 0.11 0.11 0.13 0.14 0.14
0.00 0.00 0.00 0.03 0.03 0.02 0.01 0.03 0.04 0.02 0.02 0.02 0.02 0.02 0.03 0.08 0.07 0.05 0.04 0.03 0.03 0.04 0.07 0.09 0.09 0.08 0.05 0.04 0.04 0.04 0.05 0.06 0.07 0.07 0.09 0.10 0.09 0.08 0.09 0.09 0.10 0.10 0.09
0.00 0.00 0.00 0.02 0.03 0.01 0.00 0.01 0.04 0.05 0.03 0.03 0.04 0.02 0.03 0.06 0.07 0.08 0.07 0.06 0.08 0.10 0.07 0.06 0.08 0.09 0.06 0.04 0.04 0.04 0.04 0.05 0.05 0.05 0.07 0.07 0.07 0.07 0.07 0.07 0.07 0.08 0.08
0.00 0.00 0.00 0.01 0.03 0.02 0.02 0.02 0.02 0.02 0.03 0.05 0.05 0.04 0.04 0.06 0.09 0.07 0.05 0.09 0.10 0.09 0.08 0.06 0.05 0.05 0.05 0.05 0.04 0.04 0.03 0.04 0.05 0.06 0.06 0.07 0.08 0.08 0.08 0.08 0.09 0.12 0.15
0.00 0.00 0.00 0.01 0.03 0.02 0.02 0.02 0.01 0.01 0.02 0.05 0.03 0.04 0.03 0.02 0.03 0.03 0.03 0.05 0.06 0.05 0.05 0.05 0.05 0.05 0.05 0.05 0.05 0.04 0.06 0.07 0.08 0.07 0.06 0.07 0.09 0.10 0.10 0.12 0.15 0.18 0.21
0.00 0.00 0.00 0.00 0.01 0.01 0.01 0.01 0.01 0.01 0.02 0.02 0.02 0.03 0.03 0.03 0.03 0.03 0.02 0.03 0.04 0.04 0.04 0.04 0.05 0.05 0.05 0.05 0.05 0.06 0.07 0.07 0.08 0.07 0.07 0.08 0.09 0.10 0.10 0.11 0.12 0.14 0.17

GEFSGL_prec_meanprecacc_084.txt.gz
Total_Precipitation_Accumulation
0.99 1.01 1.00 0.99 0.90 0.89 0.94 0.95 0.94 0.95 0.98 0.96 0.88 0.81 0.87 0.85 0.80 0.86 0.92 0.97 1.05 1.17 1.31 1.39 1.51 1.78 2.09 2.10 2.04 1.88 1.69 1.49 1.21 1.06 0.85 0.71 0.87 0.92 0.89 0.78 0.72 0.65 0.51
0.92 0.95 0.94 0.85 0.81 0.77 0.76 0.73 0.66 0.64 0.67 0.75 0.83 0.78 0.76 0.78 0.77 0.82 0.85 0.89 0.91 0.98 1.06 1.15 1.28 1.58 1.95 2.16 2.23 2.11 1.92 1.73 1.54 1.37 1.06 0.77 0.80 1.03 1.14 1.06 0.86 0.72 0.64
1.00 0.86 0.78 0.74 0.71 0.69 0.61 0.57 0.55 0.50 0.50 0.54 0.62 0.63 0.72 0.78 0.79 0.80 0.81 0.84 0.87 0.95 1.07 1.10 1.12 1.29 1.50 1.74 1.92 2.01 1.98 1.94 1.85 1.60 1.33 1.07 0.92 0.96 1.14 1.13 1.01 0.95 0.83
1.11 1.01 0.86 0.77 0.70 0.64 0.57 0.54 0.51 0.49 0.51 0.57 0.69 0.74 0.69 0.66 0.71 0.80 0.82 0.76 0.76 0.80 0.87 0.94 1.00 1.02 1.15 1.33 1.47 1.65 1.84 2.02 2.06 1.89 1.63 1.35 1.21 1.02 1.03 1.11 1.16 1.10 1.02
1.09 1.07 0.92 0.86 0.78 0.65 0.60 0.60 0.58 0.61 0.57 0.58 0.69 0.80 0.86 0.81 0.78 0.84 0.80 0.78 0.77 0.76 0.80 0.79 0.85 0.86 0.89 1.03 1.09 1.31 1.63 1.87 1.95 1.96 1.84 1.56 1.33 1.13 0.90 0.91 1.07 1.23 1.23
0.75 0.81 0.77 0.69 0.61 0.58 0.57 0.55 0.52 0.51 0.47 0.47 0.50 0.58 0.67 0.71 0.90 0.85 0.69 0.65 0.69 0.74 0.79 0.78 0.79 0.72 0.70 0.73 0.83 0.97 1.24 1.43 1.55 1.58 1.57 1.43 1.27 1.13 1.03 0.99 0.98 0.99 1.06
0.47 0.56 0.55 0.49 0.43 0.40 0.45 0.45 0.43 0.39 0.40 0.38 0.37 0.37 0.44 0.59 0.66 0.50 0.48 0.53 0.65 0.74 0.80 0.82 0.79 0.72 0.75 0.75 0.73 0.72 0.80 0.97 1.15 1.32 1.34 1.24 1.29 1.19 1.08 1.00 0.98 0.92 0.84
0.22 0.26 0.27 0.28 0.27 0.29 0.31 0.32 0.33 0.32 0.30 0.29 0.36 0.44 0.46 0.47 0.51 0.42 0.41 0.51 0.70 0.81 0.79 0.74 0.78 0.80 0.83 0.86 0.77 0.79 0.74 0.76 0.83 0.87 1.01 1.21 1.32 1.42 1.35 1.22 1.19 1.11 1.02
0.06 0.08 0.10 0.12 0.14 0.17 0.18 0.21 0.30 0.33 0.34 0.37 0.48 0.56 0.49 0.41 0.44 0.44 0.50 0.66 0.78 0.85 0.81 0.79 0.85 0.86 0.99 0.99 0.88 0.92 0.88 0.84 0.81 0.92 1.02 1.11 1.18 1.26 1.33 1.28 1.22 1.15 1.07
0.00 0.00 0.01 0.01 0.02 0.05 0.08 0.11 0.17 0.24 0.31 0.38 0.40 0.38 0.38 0.43 0.49 0.46 0.57 0.77 0.89 0.99 0.95 0.93 1.09 1.02 0.97 0.90 0.86 1.00 0.98 0.82 0.72 0.76 0.81 0.88 0.90 0.97 1.07 1.05 1.08 1.10 1.03
0.00 0.00 0.00 0.00 0.00 0.01 0.02 0.03 0.06 0.11 0.15 0.17 0.19 0.22 0.29 0.45 0.51 0.52 0.70 0.79 0.85 1.00 1.02 0.98 0.91 1.00 0.92 0.83 0.83 0.89 1.02 0.88 0.78 0.79 0.77 0.77 0.79 0.80 0.84 0.88 0.92 0.93 0.93
0.00 0.00 0.00 0.00 0.00 0.01 0.01 0.02 0.02 0.04 0.06 0.10 0.12 0.16 0.22 0.30 0.37 0.43 0.56 0.68 0.75 0.92 0.99 0.89 0.80 1.00 0.93 0.82 0.75 0.77 0.89 0.93 0.88 0.88 0.85 0.77 0.73 0.70 0.68 0.71 0.76 0.79 0.79
0.00 0.00 0.00 0.00 0.01 0.01 0.01 0.01 0.02 0.03 0.06 0.07 0.11 0.17 0.23 0.27 0.28 0.34 0.42 0.50 0.62 0.80 0.86 0.87 0.87 0.89 0.79 0.71 0.81 0.82 0.82 0.85 0.92 0.93 0.80 0.64 0.58 0.57 0.61 0.70 0.79 0.83 0.84
0.00 0.00 0.00 0.01 0.01 0.01 0.01 0.02 0.02 0.02 0.05 0.08 0.15 0.21 0.24 0.27 0.28 0.34 0.42 0.46 0.55 0.64 0.66 0.70 0.73 0.69 0.67 0.67 0.72 0.81 0.83 0.86 0.87 0.82 0.70 0.55 0.52 0.53 0.56 0.59 0.68 0.78 0.90
0.00 0.00 0.00 0.01 0.01 0.01 0.01 0.01 0.02 0.02 0.04 0.10 0.14 0.17 0.18 0.20 0.23 0.30 0.41 0.49 0.60 0.70 0.71 0.65 0.68 0.67 0.65 0.63 0.65 0.67 0.69 0.67 0.67 0.65 0.62 0.61 0.60 0.57 0.53 0.51 0.54 0.54 0.57
0.00 0.00 0.00 0.01 0.01 0.01 0.02 0.02 0.01 0.01 0.02 0.04 0.05 0.08 0.14 0.16 0.13 0.14 0.24 0.38 0.54 0.74 0.95 0.98 0.98 0.92 0.82 0.71 0.60 0.52 0.48 0.49 0.52 0.56 0.57 0.55 0.53 0.54 0.53 0.50 0.52 0.52 0.49
0.00 0.00 0.00 0.00 0.01 0.01 0.03 0.06 0.08 0.05 0.01 0.01 0.01 0.04 0.10 0.14 0.13 0.16 0.22 0.27 0.39 0.67 1.02 1.03 1.01 0.87 0.72 0.64 0.52 0.38 0.32 0.33 0.39 0.40 0.43 0.46 0.44 0.43 0.45 0.45 0.43 0.47 0.48
0.00 0.00 0.00 0.01 0.01 0.01 0.02 0.06 0.16 0.21 0.16 0.06 0.01 0.02 0.07 0.14 0.19 0.26 0.35 0.45 0.51 0.63 0.72 0.71 0.64 0.55 0.47 0.38 0.34 0.29 0.22 0.24 0.30 0.30 0.33 0.34 0.33 0.34 0.36 0.40 0.38 0.37 0.40
0.00 0.00 0.02 0.04 0.02 0.01 0.02 0.09 0.14 0.06 0.04 0.06 0.05 0.02 0.02 0.05 0.10 0.17 0.27 0.37 0.39 0.40 0.39 0.32 0.26 0.22 0.20 0.17 0.17 0.17 0.16 0.17 0.20 0.23 0.24 0.26 0.26 0.27 0.30 0.32 0.33 0.33 0.32
0.00 0.00 0.01 0.06 0.06 0.02 0.04 0.08 0.05 0.03 0.04 0.05 0.05 0.03 0.02 0.03 0.07 0.10 0.13 0.16 0.16 0.17 0.16 0.14 0.11 0.08 0.09 0.08 0.08 0.09 0.09 0.12 0.14 0.16 0.16 0.19 0.21 0.21 0.23 0.25 0.27 0.28 0.26
0.00 0.00 0.00 0.02 0.05 0.03 0.03 0.04 0.02 0.02 0.03 0.04 0.03 0.01 0.02 0.06 0.07 0.07 0.07 0.06 0.07 0.08 0.09 0.09 0.07 0.07 0.06 0.06 0.08 0.10 0.11 0.12 0.13 0.15 0.16 0.16 0.18 0.20 0.20 0.21 0.22 0.23 0.24
0.00 0.00 0.00 0.03 0.03 0.02 0.01 0.03 0.04 0.02 0.02 0.02 0.02 0.02 0.03 0.08 0.07 0.05 0.04 0.04 0.03 0.04 0.08 0.10 0.10 0.11 0.08 0.08 0.09 0.10 0.11 0.12 0.12 0.12 0.14 0.15 0.15 0.16 0.18 0.20 0.21 0.21 0.21
0.00 0.00 0.00 0.02 0.03 0.01 0.00 0.01 0.04 0.05 0.03 0.03 0.04 0.02 0.03 0.06 0.07 0.08 0.07 0.06 0.08 0.10 0.08 0.07 0.10 0.11 0.09 0.09 0.10 0.10 0.12 0.13 0.14 0.14 0.14 0.14 0.13 0.14 0.15 0.16 0.16 0.18 0.18
0.00 0.00 0.00 0.01 0.03 0.02 0.02 0.02 0.02 0.02 0.03 0.05 0.05 0.04 0.04 0.07 0.09 0.07 0.05 0.09 0.10 0.09 0.08 0.06 0.06 0.08 0.08 0.09 0.10 0.11 0.11 0.13 0.15 0.15 0.15 0.15 0.15 0.15 0.15 0.16 0.18 0.20 0.24
0.00 0.00 0.00 0.01 0.03 0.02 0.02 0.02 0.01 0.01 0.02 0.05 0.03 0.04 0.03 0.03 0.03 0.03 0.03 0.05 0.06 0.05 0.05 0.05 0.05 0.06 0.07 0.08 0.09 0.10 0.13 0.16 0.18 0.17 0.16 0.17 0.18 0.19 0.18 0.20 0.25 0.28 0.31
0.00 0.00 0.00 0.00 0.01 0.01 0.01 0.01 0.01 0.01 0.02 0.02 0.02 0.03 0.03 0.03 0.03 0.03 0.03 0.03 0.04 0.04 0.05 0.05 0.05 0.06 0.06 0.07 0.09 0.12 0.14 0.14 0.16 0.17 0.18 0.19 0.22 0.21 0.21 0.21 0.22 0.24 0.27

GEFSGL_prec_meanprecacc_090.txt.gz
Total_Precipitation_Accumulation
0.99 1.01 1.00 0.99 0.90 0.89 0.94 0.95 0.94 0.95 0.98 0.96 0.88 0.81 0.88 0.86 0.81 0.86 0.92 0.97 1.05 1.17 1.31 1.40 1.52 1.79 2.10 2.12 2.06 1.91 1.72 1.52 1.24 1.08 0.88 0.73 0.91 0.97 0.94 0.83 0.79 0.74 0.59
0.92 0.95 0.94 0.85 0.81 0.77 0.76 0.73 0.66 0.64 0.67 0.75 0.83 0.78 0.77 0.79 0.79 0.83 0.85 0.89 0.91 0.98 1.06 1.16 1.28 1.59 1.95 2.17 2.25 2.14 1.95 1.76 1.58 1.40 1.09 0.80 0.82 1.08 1.20 1.12 0.93 0.80 0.71
1.00 0.86 0.78 0.74 0.71 0.69 0.61 0.57 0.55 0.50 0.50 0.54 0.62 0.63 0.72 0.78 0.80 0.81 0.81 0.84 0.87 0.95 1.08 1.11 1.13 1.30 1.51 1.75 1.94 2.04 2.01 1.98 1.88 1.62 1.36 1.09 0.94 0.99 1.21 1.21 1.09 1.04 0.93
1.11 1.01 0.86 0.77 0.70 0.64 0.57 0.54 0.51 0.49 0.51 0.57 0.69 0.74 0.69 0.66 0.71 0.80 0.82 0.76 0.76 0.81 0.88 0.95 1.01 1.03 1.17 1.35 1.49 1.67 1.86 2.05 2.09 1.92 1.66 1.38 1.23 1.05 1.08 1.20 1.25 1.18 1.12
1.09 1.07 0.92 0.86 0.78 0.65 0.60 0.60 0.58 0.61 0.57 0.58 0.69 0.80 0.87 0.82 0.78 0.85 0.80 0.78 0.78 0.77 0.81 0.80 0.85 0.87 0.90 1.05 1.11 1.33 1.64 1.88 1.97 2.00 1.87 1.59 1.35 1.15 0.92 0.95 1.14 1.32 1.32
0.75 0.81 0.77 0.69 0.61 0.58 0.57 0.55 0.52 0.51 0.47 0.47 0.50 0.58 0.67 0.72 0.91 0.86 0.69 0.66 0.69 0.75 0.79 0.79 0.79 0.72 0.71 0.75 0.85 0.98 1.26 1.44 1.57 1.61 1.61 1.46 1.29 1.15 1.05 1.02 1.03 1.08 1.15
0.47 0.56 0.55 0.49 0.43 0.40 0.45 0.45 0.43 0.39 0.40 0.38 0.37 0.37 0.44 0.59 0.66 0.51 0.49 0.54 0.66 0.75 0.81 0.83 0.81 0.75 0.77 0.76 0.74 0.74 0.81 0.99 1.17 1.34 1.36 1.27 1.31 1.21 1.11 1.02 1.02 0.97 0.91
0.22 0.26 0.27 0.28 0.27 0.29 0.31 0.32 0.33 0.32 0.30 0.29 0.36 0.44 0.46 0.47 0.52 0.42 0.41 0.52 0.70 0.81 0.79 0.75 0.81 0.82 0.85 0.88 0.78 0.80 0.75 0.76 0.84 0.89 1.03 1.23 1.34 1.45 1.39 1.26 1.24 1.19 1.11
0.06 0.08 0.10 0.12 0.14 0.17 0.18 0.21 0.30 0.33 0.34 0.37 0.48 0.56 0.49 0.41 0.44 0.45 0.50 0.66 0.78 0.85 0.81 0.80 0.87 0.88 1.00 1.01 0.89 0.93 0.88 0.84 0.81 0.92 1.03 1.13 1.20 1.29 1.37 1.32 1.27 1.22 1.15
0.00 0.00 0.01 0.01 0.02 0.05 0.08 0.11 0.17 0.24 0.31 0.38 0.40 0.38 0.38 0.43 0.49 0.46 0.57 0.77 0.89 0.99 0.95 0.93 1.10 1.04 0.98 0.91 0.87 1.00 0.99 0.82 0.72 0.76 0.82 0.89 0.92 0.99 1.10 1.08 1.13 1.15 1.09
0.00 0.00 0.00 0.00 0.00 0.01 0.02 0.03 0.06 0.11 0.15 0.17 0.19 0.22 0.29 0.45 0.51 0.52 0.70 0.79 0.85 1.00 1.03 0.98 0.91 1.02 0.93 0.84 0.84 0.89 1.02 0.88 0.78 0.79 0.77 0.77 0.80 0.82 0.86 0.90 0.95 0.98 0.98
0.00 0.00 0.00 0.00 0.00 0.01 0.01 0.02 0.02 0.04 0.06 0.10 0.12 0.16 0.22 0.30 0.37 0.43 0.56 0.68 0.75 0.92 0.99 0.90 0.80 1.01 0.94 0.82 0.76 0.77 0.89 0.94 0.88 0.89 0.86 0.78 0.74 0.71 0.69 0.72 0.79 0.84 0.86
0.00 0.00 0.00 0.00 0.01 0.01 0.01 0.01 0.02 0.03 0.06 0.07 0.11 0.17 0.23 0.27 0.28 0.34 0.42 0.50 0.62 0.80 0.86 0.87 0.88 0.90 0.80 0.74 0.82 0.83 0.82 0.86 0.93 0.94 0.81 0.65 0.60 0.58 0.63 0.71 0.81 0.87 0.90
0.00 0.00 0.00 0.01 0.01 0.01 0.01 0.02 0.02 0.02 0.05 0.08 0.15 0.21 0.24 0.27 0.28 0.34 0.42 0.46 0.55 0.64 0.66 0.70 0.74 0.70 0.68 0.70 0.74 0.82 0.83 0.86 0.88 0.84 0.72 0.57 0.53 0.55 0.58 0.62 0.72 0.83 0.96
0.00 0.00 0.00 0.01 0.01 0.01 0.01 0.01 0.02 0.02 0.04 0.10 0.14 0.17 0.18 0.20 0.23 0.30 0.41 0.49 0.60 0.70 0.71 0.65 0.68 0.67 0.66 0.64 0.67 0.68 0.70 0.68 0.68 0.67 0.64 0.62 0.61 0.59 0.56 0.55 0.59 0.61 0.64
0.00 0.00 0.00 0.01 0.01 0.01 0.02 0.02 0.01 0.01 0.02 0.04 0.05 0.08 0.14 0.16 0.13 0.14 0.24 0.38 0.54 0.74 0.95 0.98 0.98 0.92 0.82 0.71 0.61 0.53 0.49 0.50 0.54 0.58 0.59 0.56 0.55 0.56 0.56 0.55 0.57 0.59 0.57
0.00 0.00 0.00 0.00 0.01 0.01 0.03 0.06 0.08 0.05 0.01 0.01 0.01 0.04 0.10 0.14 0.13 0.16 0.22 0.27 0.39 0.67 1.02 1.03 1.01 0.87 0.72 0.65 0.52 0.39 0.32 0.34 0.40 0.41 0.45 0.49 0.47 0.46 0.49 0.49 0.48 0.51 0.53
0.00 0.00 0.00 0.01 0.01 0.01 0.02 0.06 0.16 0.21 0.16 0.06 0.01 0.02 0.07 0.14 0.19 0.26 0.35 0.45 0.52 0.63 0.72 0.71 0.64 0.55 0.47 0.38 0.35 0.30 0.23 0.25 0.30 0.31 0.35 0.37 0.36 0.38 0.40 0.44 0.44 0.43 0.45
0.00 0.00 0.02 0.04 0.02 0.01 0.02 0.09 0.14 0.06 0.04 0.06 0.05 0.02 0.02 0.05 0.10 0.17 0.27 0.37 0.39 0.41 0.39 0.32 0.26 0.22 0.20 0.17 0.18 0.18 0.16 0.17 0.20 0.24 0.26 0.28 0.28 0.30 0.34 0.37 0.39 0.41 0.40
0.00 0.00 0.01 0.06 0.06 0.02 0.04 0.08 0.05 0.03 0.04 0.05 0.05 0.04 0.02 0.03 0.07 0.10 0.13 0.17 0.16 0.17 0.16 0.14 0.12 0.08 0.09 0.08 0.08 0.09 0.09 0.12 0.14 0.17 0.18 0.21 0.24 0.24 0.27 0.30 0.32 0.34 0.33
0.00 0.00 0.00 0.02 0.05 0.03 0.03 0.04 0.02 0.02 0.03 0.04 0.03 0.01 0.02 0.06 0.07 0.07 0.07 0.06 0.07 0.08 0.09 0.09 0.07 0.07 0.06 0.06 0.08 0.10 0.11 0.12 0.13 0.16 0.16 0.17 0.20 0.23 0.24 0.26 0.28 0.28 0.30
0.00 0.00 0.00 0.03 0.03 0.02 0.01 0.03 0.04 0.02 0.02 0.02 0.02 0.02 0.03 0.08 0.07 0.05 0.04 0.04 0.03 0.04 0.08 0.10 0.11 0.11 0.08 0.08 0.09 0.10 0.11 0.12 0.12 0.12 0.14 0.16 0.16 0.17 0.20 0.23 0.25 0.27 0.27
0.00 0.00 0.00 0.02 0.03 0.01 0.00 0.01 0.04 0.05 0.03 0.03 0.04 0.02 0.03 0.06 0.07 0.08 0.07 0.06 0.08 0.10 0.08 0.07 0.10 0.11 0.09 0.09 0.10 0.11 0.12 0.14 0.14 0.14 0.15 0.15 0.15 0.15 0.17 0.18 0.21 0.23 0.24
0.00 0.00 0.00 0.01 0.03 0.02 0.02 0.02 0.02 0.02 0.03 0.05 0.05 0.04 0.04 0.07 0.09 0.07 0.05 0.09 0.10 0.09 0.08 0.06 0.06 0.08 0.08 0.09 0.10 0.11 0.11 0.13 0.15 0.15 0.16 0.16 0.16 0.16 0.17 0.19 0.22 0.25 0.30
0.00 0.00 0.00 0.01 0.03 0.02 0.02 0.02 0.01 0.01 0.02 0.05 0.03 0.04 0.03 0.03 0.03 0.03 0.03 0.05 0.06 0.06 0.06 0.05 0.05 0.06 0.07 0.08 0.09 0.10 0.13 0.16 0.18 0.17 0.17 0.17 0.19 0.20 0.20 0.23 0.28 0.33 0.38
0.00 0.00 0.00 0.00 0.01 0.01 0.01 0.01 0.01 0.01 0.02 0.02 0.02 0.03 0.03 0.03 0.03 0.03 0.03 0.03 0.04 0.04 0.05 0.05 0.05 0.06 0.06 0.07 0.09 0.12 0.14 0.15 0.16 0.18 0.18 0.20 0.23 0.23 0.23 0.24 0.26 0.29 0.33

GEFSGL_prec_meanprecacc_096.txt.gz
Total_Precipitation_Accumulation
0.99 1.01 1.00 0.99 0.90 0.89 0.94 0.95 0.94 0.95 0.98 0.96 0.88 0.82 0.88 0.86 0.81 0.86 0.92 0.98 1.06 1.18 1.31 1.41 1.53 1.80 2.12 2.15 2.10 1.95 1.78 1.58 1.30 1.15 0.92 0.77 0.94 1.01 0.99 0.87 0.83 0.79 0.63
0.92 0.95 0.94 0.85 0.81 0.77 0.76 0.73 0.66 0.64 0.67 0.75 0.83 0.78 0.77 0.79 0.79 0.84 0.86 0.90 0.92 0.99 1.07 1.17 1.30 1.60 1.97 2.19 2.28 2.18 2.00 1.81 1.62 1.46 1.15 0.85 0.87 1.11 1.24 1.16 0.96 0.83 0.75
1.00 0.86 0.78 0.74 0.71 0.69 0.61 0.57 0.55 0.50 0.50 0.54 0.63 0.63 0.72 0.78 0.80 0.81 0.82 0.86 0.88 0.96 1.09 1.13 1.15 1.32 1.53 1.77 1.96 2.07 2.05 2.01 1.92 1.67 1.41 1.14 1.00 1.04 1.25 1.25 1.13 1.08 0.96
1.11 1.01 0.86 0.77 0.70 0.64 0.57 0.54 0.51 0.49 0.51 0.57 0.70 0.74 0.69 0.66 0.71 0.81 0.83 0.78 0.77 0.82 0.89 0.96 1.03 1.06 1.19 1.36 1.50 1.69 1.89 2.08 2.12 1.95 1.69 1.42 1.27 1.09 1.12 1.24 1.30 1.22 1.14
1.09 1.07 0.92 0.86 0.78 0.65 0.60 0.60 0.58 0.61 0.57 0.58 0.69 0.80 0.87 0.82 0.78 0.86 0.82 0.80 0.80 0.78 0.82 0.81 0.86 0.88 0.92 1.07 1.13 1.36 1.68 1.92 2.00 2.03 1.90 1.62 1.39 1.19 0.96 0.99 1.19 1.37 1.35
0.75 0.81 0.77 0.69 0.61 0.58 0.57 0.55 0.52 0.51 0.47 0.47 0.50 0.58 0.67 0.72 0.91 0.87 0.70 0.67 0.71 0.76 0.81 0.80 0.81 0.74 0.73 0.76 0.87 1.01 1.30 1.49 1.60 1.64 1.64 1.50 1.33 1.18 1.09 1.05 1.06 1.13 1.20
0.47 0.56 0.55 0.49 0.43 0.40 0.45 0.45 0.43 0.39 0.40 0.38 0.37 0.37 0.44 0.59 0.67 0.51 0.49 0.54 0.66 0.76 0.82 0.85 0.82 0.77 0.79 0.79 0.76 0.76 0.84 1.02 1.20 1.38 1.40 1.30 1.36 1.26 1.15 1.06 1.05 1.01 0.95
0.22 0.26 0.27 0.28 0.27 0.29 0.31 0.32 0.33 0.32 0.30 0.29 0.36 0.44 0.46 0.47 0.52 0.42 0.42 0.52 0.71 0.82 0.81 0.76 0.81 0.82 0.86 0.90 0.79 0.81 0.77 0.79 0.87 0.92 1.06 1.26 1.38 1.51 1.45 1.31 1.29 1.23 1.14
0.06 0.08 0.10 0.12 0.14 0.17 0.18 0.21 0.30 0.33 0.34 0.37 0.48 0.56 0.49 0.41 0.44 0.45 0.51 0.66 0.78 0.86 0.82 0.81 0.87 0.88 1.01 1.02 0.90 0.94 0.90 0.85 0.83 0.93 1.04 1.14 1.22 1.32 1.41 1.38 1.32 1.26 1.19
0.00 0.00 0.01 0.01 0.02 0.05 0.08 0.11 0.17 0.24 0.31 0.38 0.40 0.38 0.38 0.43 0.49 0.46 0.58 0.77 0.90 1.00 0.95 0.94 1.11 1.04 1.00 0.92 0.88 1.01 0.99 0.83 0.74 0.77 0.83 0.91 0.94 1.03 1.13 1.13 1.18 1.20 1.13
0.00 0.00 0.00 0.00 0.00 0.01 0.02 0.03 0.06 0.11 0.15 0.17 0.19 0.22 0.29 0.45 0.51 0.52 0.70 0.79 0.86 1.01 1.03 0.99 0.92 1.02 0.94 0.85 0.84 0.90 1.03 0.89 0.79 0.80 0.79 0.80 0.82 0.85 0.89 0.94 0.99 1.04 1.04
0.00 0.00 0.00 0.00 0.00 0.01 0.01 0.02 0.02 0.04 0.06 0.10 0.12 0.16 0.22 0.30 0.37 0.43 0.56 0.68 0.75 0.92 1.00 0.90 0.80 1.01 0.95 0.84 0.76 0.78 0.90 0.94 0.89 0.90 0.88 0.80 0.76 0.74 0.72 0.76 0.82 0.88 0.91
0.00 0.00 0.00 0.00 0.01 0.01 0.01 0.01 0.02 0.03 0.06 0.07 0.11 0.17 0.23 0.27 0.28 0.34 0.42 0.50 0.62 0.80 0.86 0.87 0.88 0.90 0.81 0.75 0.84 0.85 0.85 0.87 0.94 0.96 0.83 0.67 0.61 0.60 0.64 0.73 0.84 0.90 0.94
0.00 0.00 0.00 0.01 0.01 0.01 0.01 0.02 0.02 0.02 0.05 0.08 0.15 0.21 0.24 0.27 0.28 0.34 0.42 0.46 0.55 0.64 0.66 0.70 0.74 0.70 0.69 0.71 0.77 0.85 0.86 0.89 0.90 0.85 0.73 0.59 0.55 0.56 0.59 0.63 0.73 0.85 0.98
0.00 0.00 0.00 0.01 0.01 0.01 0.01 0.01 0.02 0.02 0.04 0.10 0.14 0.17 0.18 0.20 0.23 0.30 0.41 0.49 0.60 0.70 0.71 0.65 0.68 0.67 0.66 0.65 0.68 0.69 0.71 0.70 0.70 0.68 0.65 0.63 0.62 0.61 0.57 0.57 0.61 0.65 0.68
0.00 0.00 0.00 0.01 0.01 0.01 0.02 0.02 0.01 0.01 0.02 0.04 0.05 0.08 0.14 0.17 0.13 0.15 0.24 0.38 0.54 0.74 0.95 0.98 0.98 0.92 0.83 0.71 0.62 0.53 0.49 0.51 0.55 0.60 0.61 0.58 0.57 0.58 0.59 0.59 0.61 0.64 0.61
0.00 0.00 0.00 0.00 0.01 0.01 0.03 0.06 0.08 0.05 0.01 0.01 0.01 0.04 0.10 0.15 0.13 0.17 0.22 0.27 0.39 0.67 1.02 1.03 1.01 0.87 0.73 0.65 0.53 0.39 0.33 0.34 0.40 0.43 0.47 0.51 0.49 0.49 0.53 0.54 0.53 0.56 0.58
0.00 0.00 0.00 0.01 0.01 0.01 0.02 0.06 0.16 0.21 0.16 0.06 0.01 0.02 0.07 0.14 0.19 0.27 0.35 0.45 0.52 0.63 0.72 0.71 0.64 0.55 0.47 0.39 0.35 0.30 0.23 0.25 0.31 0.32 0.36 0.38 0.38 0.40 0.43 0.48 0.48 0.47 0.49
0.00 0.00 0.02 0.04 0.02 0.01 0.02 0.09 0.14 0.06 0.04 0.06 0.05 0.02 0.02 0.05 0.10 0.17 0.27 0.37 0.39 0.41 0.39 0.32 0.26 0.22 0.20 0.17 0.18 0.18 0.16 0.17 0.21 0.25 0.28 0.29 0.29 0.31 0.35 0.39 0.42 0.45 0.44
0.00 0.00 0.01 0.06 0.06 0.02 0.04 0.08 0.05 0.03 0.04 0.05 0.05 0.04 0.02 0.03 0.07 0.10 0.13 0.17 0.16 0.17 0.16 0.14 0.12 0.09 0.09 0.08 0.08 0.09 0.09 0.12 0.15 0.18 0.19 0.23 0.25 0.25 0.28 0.31 0.33 0.35 0.35
0.00 0.00 0.00 0.02 0.05 0.03 0.03 0.04 0.02 0.02 0.03 0.04 0.03 0.01 0.02 0.06 0.07 0.07 0.07 0.06 0.07 0.08 0.09 0.10 0.07 0.07 0.06 0.06 0.08 0.10 0.11 0.13 0.13 0.16 0.17 0.18 0.20 0.23 0.25 0.27 0.30 0.30 0.32
0.00 0.00 0.00 0.03 0.03 0.02 0.01 0.03 0.04 0.02 0.02 0.02 0.02 0.02 0.03 0.08 0.07 0.05 0.04 0.04 0.03 0.04 0.08 0.10 0.11 0.11 0.08 0.08 0.09 0.10 0.11 0.12 0.12 0.13 0.15 0.16 0.17 0.18 0.21 0.24 0.26 0.28 0.29
0.00 0.00 0.00 0.02 0.03 0.01 0.00 0.01 0.04 0.05 0.03 0.03 0.04 0.02 0.03 0.06 0.07 0.08 0.07 0.06 0.08 0.10 0.08 0.07 0.10 0.11 0.09 0.09 0.10 0.11 0.12 0.14 0.15 0.14 0.15 0.15 0.15 0.16 0.17 0.19 0.21 0.24 0.25
0.00 0.00 0.00 0.01 0.03 0.02 0.02 0.02 0.02 0.02 0.03 0.05 0.05 0.04 0.04 0.07 0.09 0.07 0.05 0.09 0.11 0.10 0.09 0.07 0.06 0.08 0.08 0.09 0.10 0.11 0.11 0.13 0.16 0.16 0.16 0.17 0.17 0.17 0.18 0.20 0.22 0.26 0.31
0.00 0.00 0.00 0.01 0.03 0.02 0.02 0.02 0.01 0.01 0.02 0.05 0.03 0.04 0.03 0.03 0.03 0.03 0.03 0.05 0.07 0.06 0.06 0.06 0.06 0.06 0.07 0.08 0.10 0.11 0.14 0.17 0.18 0.18 0.17 0.18 0.20 0.21 0.21 0.24 0.29 0.33 0.38
0.00 0.00 0.00 0.00 0.01 0.01 0.01 0.01 0.01 0.01 0.02 0.02 0.02 0.03 0.03 0.03 0.03 0.03 0.03 0.03 0.04 0.04 0.05 0.05 0.05 0.06 0.07 0.07 0.09 0.12 0.14 0.15 0.16 0.18 0.19 0.21 0.24 0.24 0.24 0.25 0.27 0.30 0.34

GEFSGL_prec_meanprecacc_102.txt.gz
Total_Precipitation_Accumulation
0.99 1.01 1.00 0.99 0.90 0.89 0.94 0.95 0.94 0.95 0.98 0.96 0.88 0.82 0.89 0.87 0.82 0.87 0.94 0.99 1.07 1.20 1.33 1.44 1.56 1.83 2.14 2.18 2.13 1.98 1.82 1.62 1.35 1.20 0.99 0.83 1.03 1.09 1.07 0.95 0.92 0.87 0.71
0.92 0.95 0.94 0.85 0.81 0.77 0.76 0.73 0.66 0.64 0.67 0.75 0.83 0.78 0.77 0.79 0.80 0.85 0.88 0.91 0.94 1.01 1.09 1.20 1.32 1.63 2.00 2.23 2.32 2.21 2.03 1.85 1.66 1.50 1.19 0.90 0.94 1.19 1.31 1.24 1.04 0.91 0.82
1.00 0.86 0.78 0.74 0.71 0.69 0.61 0.57 0.55 0.50 0.50 0.54 0.63 0.64 0.72 0.79 0.81 0.83 0.84 0.87 0.90 0.98 1.11 1.15 1.17 1.34 1.56 1.80 1.99 2.10 2.08 2.05 1.96 1.70 1.44 1.18 1.05 1.10 1.31 1.32 1.21 1.16 1.03
1.11 1.01 0.86 0.77 0.70 0.64 0.57 0.54 0.51 0.49 0.52 0.58 0.70 0.74 0.69 0.67 0.71 0.82 0.86 0.80 0.79 0.85 0.92 0.99 1.06 1.09 1.22 1.39 1.53 1.72 1.92 2.12 2.17 1.99 1.73 1.46 1.30 1.14 1.19 1.31 1.38 1.30 1.21
1.09 1.07 0.92 0.86 0.78 0.65 0.60 0.60 0.58 0.61 0.57 0.59 0.70 0.80 0.87 0.82 0.79 0.87 0.84 0.82 0.83 0.81 0.85 0.84 0.89 0.90 0.93 1.09 1.15 1.39 1.71 1.96 2.05 2.08 1.95 1.67 1.43 1.24 1.01 1.05 1.26 1.44 1.43
0.75 0.81 0.77 0.69 0.61 0.58 0.57 0.55 0.52 0.51 0.47 0.47 0.51 0.58 0.67 0.72 0.91 0.87 0.71 0.69 0.74 0.79 0.83 0.83 0.84 0.77 0.74 0.77 0.88 1.02 1.32 1.53 1.65 1.70 1.70 1.55 1.38 1.24 1.16 1.11 1.12 1.20 1.27
0.47 0.56 0.55 0.49 0.43 0.40 0.45 0.45 0.43 0.39 0.40 0.38 0.37 0.37 0.44 0.59 0.67 0.51 0.49 0.56 0.69 0.80 0.85 0.87 0.84 0.79 0.82 0.81 0.77 0.77 0.86 1.05 1.25 1.44 1.45 1.36 1.42 1.32 1.23 1.13 1.11 1.07 1.04
0.22 0.26 0.27 0.28 0.27 0.29 0.31 0.32 0.33 0.32 0.30 0.29 0.36 0.44 0.46 0.47 0.52 0.42 0.42 0.53 0.72 0.84 0.83 0.78 0.84 0.84 0.87 0.92 0.82 0.83 0.79 0.81 0.90 0.95 1.09 1.29 1.43 1.56 1.50 1.38 1.37 1.29 1.20
0.06 0.08 0.10 0.12 0.14 0.17 0.18 0.21 0.30 0.33 0.34 0.37 0.48 0.56 0.49 0.41 0.44 0.45 0.51 0.67 0.79 0.87 0.83 0.82 0.89 0.89 1.02 1.04 0.94 0.97 0.91 0.86 0.84 0.95 1.05 1.16 1.24 1.35 1.45 1.42 1.39 1.33 1.24
0.00 0.00 0.01 0.01 0.02 0.05 0.08 0.11 0.17 0.24 0.31 0.38 0.40 0.38 0.38 0.44 0.49 0.46 0.58 0.78 0.91 1.01 0.96 0.95 1.12 1.05 1.00 0.93 0.89 1.03 1.01 0.85 0.75 0.79 0.85 0.92 0.96 1.06 1.17 1.17 1.24 1.27 1.19
0.00 0.00 0.00 0.00 0.00 0.01 0.02 0.03 0.06 0.11 0.15 0.17 0.19 0.22 0.29 0.45 0.51 0.52 0.70 0.80 0.87 1.02 1.05 1.01 0.93 1.03 0.94 0.86 0.85 0.90 1.03 0.89 0.80 0.81 0.81 0.83 0.86 0.89 0.94 1.00 1.06 1.12 1.12
0.00 0.00 0.00 0.00 0.00 0.01 0.01 0.02 0.02 0.04 0.06 0.10 0.12 0.16 0.22 0.30 0.37 0.43 0.56 0.68 0.75 0.93 1.01 0.92 0.81 1.02 0.95 0.84 0.76 0.78 0.90 0.95 0.90 0.92 0.90 0.83 0.79 0.77 0.75 0.81 0.89 0.95 0.99
0.00 0.00 0.00 0.00 0.01 0.01 0.01 0.01 0.02 0.03 0.06 0.07 0.11 0.17 0.23 0.27 0.28 0.34 0.42 0.50 0.62 0.80 0.86 0.87 0.88 0.90 0.81 0.76 0.84 0.85 0.86 0.88 0.94 0.97 0.86 0.70 0.64 0.64 0.68 0.77 0.88 0.95 0.99
0.00 0.00 0.00 0.01 0.01 0.01 0.01 0.02 0.02 0.02 0.05 0.08 0.15 0.21 0.25 0.27 0.28 0.34 0.42 0.46 0.56 0.64 0.66 0.70 0.74 0.70 0.69 0.71 0.77 0.86 0.88 0.91 0.91 0.86 0.75 0.61 0.57 0.59 0.61 0.65 0.76 0.89 1.02
0.00 0.00 0.00 0.01 0.01 0.01 0.01 0.01 0.02 0.02 0.04 0.10 0.14 0.17 0.18 0.20 0.23 0.30 0.41 0.49 0.60 0.70 0.71 0.66 0.68 0.68 0.67 0.66 0.69 0.71 0.72 0.71 0.72 0.70 0.66 0.64 0.63 0.61 0.58 0.58 0.63 0.67 0.70
0.00 0.00 0.00 0.01 0.01 0.01 0.02 0.02 0.01 0.01 0.02 0.04 0.05 0.08 0.14 0.17 0.13 0.15 0.24 0.38 0.54 0.74 0.95 0.98 0.99 0.93 0.83 0.72 0.62 0.54 0.50 0.52 0.56 0.60 0.62 0.60 0.58 0.59 0.60 0.60 0.63 0.66 0.63
0.00 0.00 0.00 0.00 0.01 0.01 0.03 0.06 0.08 0.05 0.01 0.01 0.01 0.04 0.10 0.15 0.13 0.17 0.22 0.27 0.39 0.67 1.02 1.04 1.02 0.87 0.73 0.65 0.53 0.40 0.33 0.35 0.41 0.43 0.48 0.51 0.50 0.50 0.53 0.55 0.54 0.58 0.60
0.00 0.00 0.00 0.01 0.01 0.01 0.02 0.06 0.16 0.21 0.16 0.06 0.01 0.02 0.07 0.14 0.19 0.27 0.35 0.45 0.52 0.63 0.72 0.72 0.64 0.55 0.47 0.39 0.35 0.30 0.23 0.25 0.31 0.33 0.36 0.38 0.38 0.41 0.43 0.48 0.49 0.48 0.50
0.00 0.00 0.02 0.04 0.02 0.01 0.02 0.09 0.14 0.06 0.04 0.06 0.05 0.02 0.02 0.05 0.10 0.17 0.27 0.37 0.39 0.41 0.39 0.33 0.27 0.22 0.21 0.18 0.18 0.18 0.16 0.17 0.21 0.26 0.28 0.29 0.30 0.31 0.35 0.39 0.42 0.45 0.44
0.00 0.00 0.01 0.06 0.06 0.02 0.04 0.08 0.05 0.03 0.04 0.05 0.05 0.04 0.02 0.03 0.07 0.10 0.13 0.17 0.16 0.17 0.16 0.15 0.12 0.09 0.09 0.08 0.08 0.10 0.10 0.12 0.15 0.18 0.20 0.23 0.25 0.25 0.28 0.31 0.33 0.36 0.35
0.00 0.00 0.00 0.02 0.05 0.03 0.03 0.04 0.02 0.02 0.03 0.04 0.03 0.01 0.02 0.06 0.07 0.07 0.07 0.06 0.07 0.08 0.09 0.10 0.07 0.07 0.06 0.06 0.08 0.10 0.12 0.13 0.13 0.16 0.17 0.18 0.21 0.23 0.25 0.27 0.30 0.31 0.33
0.00 0.00 0.00 0.03 0.04 0.02 0.01 0.03 0.04 0.02 0.02 0.02 0.02 0.02 0.03 0.08 0.07 0.05 0.04 0.04 0.03 0.04 0.08 0.10 0.11 0.11 0.08 0.08 0.09 0.10 0.11 0.12 0.12 0.13 0.15 0.16 0.17 0.18 0.21 0.24 0.27 0.29 0.29
0.01 0.01 0.01 0.03 0.04 0.02 0.01 0.02 0.04 0.05 0.03 0.03 0.04 0.02 0.03 0.06 0.07 0.08 0.07 0.06 0.08 0.10 0.08 0.07 0.10 0.11 0.09 0.09 0.10 0.11 0.12 0.14 0.15 0.14 0.15 0.15 0.15 0.16 0.18 0.19 0.21 0.24 0.26
0.00 0.00 0.01 0.02 0.03 0.02 0.02 0.02 0.02 0.02 0.03 0.05 0.05 0.04 0.04 0.07 0.09 0.07 0.05 0.09 0.11 0.10 0.09 0.07 0.06 0.08 0.08 0.09 0.10 0.11 0.11 0.14 0.16 0.16 0.16 0.17 0.17 0.17 0.18 0.20 0.23 0.26 0.31
0.01 0.00 0.01 0.01 0.03 0.02 0.02 0.02 0.01 0.01 0.02 0.05 0.03 0.04 0.03 0.03 0.03 0.03 0.03 0.05 0.07 0.06 0.06 0.06 0.06 0.06 0.07 0.08 0.10 0.11 0.14 0.17 0.18 0.18 0.17 0.18 0.20 0.21 0.22 0.24 0.30 0.34 0.39
0.02 0.01 0.01 0.01 0.01 0.01 0.02 0.01 0.01 0.01 0.02 0.02 0.02 0.03 0.03 0.03 0.03 0.03 0.03 0.03 0.04 0.04 0.05 0.05 0.05 0.06 0.07 0.07 0.09 0.12 0.14 0.15 0.16 0.18 0.19 0.21 0.24 0.24 0.25 0.26 0.28 0.31 0.35

GEFSGL_prec_meanprecacc_108.txt.gz
Total_Precipitation_Accumulation
0.99 1.01 1.00 0.99 0.90 0.89 0.94 0.95 0.94 0.95 0.98 0.96 0.88 0.82 0.89 0.87 0.82 0.88 0.94 1.00 1.08 1.21 1.34 1.44 1.57 1.84 2.15 2.18 2.13 1.99 1.83 1.63 1.36 1.21 1.01 0.88 1.09 1.16 1.15 1.02 1.00 0.94 0.77
0.92 0.95 0.94 0.85 0.81 0.77 0.76 0.73 0.66 0.64 0.67 0.75 0.83 0.78 0.77 0.79 0.80 0.86 0.88 0.92 0.94 1.02 1.10 1.21 1.34 1.64 2.01 2.23 2.32 2.21 2.04 1.86 1.67 1.51 1.20 0.92 0.99 1.25 1.38 1.31 1.10 0.96 0.88
1.00 0.86 0.78 0.74 0.71 0.69 0.61 0.57 0.55 0.50 0.50 0.54 0.63 0.64 0.72 0.79 0.81 0.83 0.85 0.87 0.90 0.99 1.12 1.16 1.19 1.35 1.56 1.80 2.00 2.11 2.10 2.07 1.98 1.71 1.45 1.19 1.06 1.15 1.37 1.38 1.27 1.22 1.08
1.11 1.01 0.86 0.77 0.70 0.64 0.57 0.54 0.51 0.49 0.52 0.58 0.70 0.74 0.69 0.67 0.71 0.82 0.86 0.80 0.79 0.85 0.94 1.02 1.09 1.11 1.23 1.40 1.54 1.73 1.93 2.14 2.19 2.01 1.75 1.47 1.32 1.17 1.23 1.37 1.44 1.37 1.27
1.09 1.07 0.92 0.86 0.78 0.65 0.60 0.60 0.58 0.61 0.57 0.59 0.70 0.80 0.87 0.82 0.79 0.87 0.84 0.82 0.83 0.81 0.86 0.86 0.91 0.93 0.94 1.10 1.17 1.40 1.72 1.97 2.07 2.10 1.98 1.69 1.44 1.26 1.03 1.08 1.32 1.51 1.50
0.75 0.81 0.77 0.69 0.61 0.58 0.57 0.55 0.52 0.51 0.47 0.47 0.51 0.58 0.67 0.72 0.92 0.87 0.71 0.69 0.74 0.80 0.85 0.84 0.85 0.80 0.76 0.78 0.89 1.03 1.33 1.54 1.67 1.72 1.72 1.58 1.40 1.25 1.18 1.14 1.16 1.26 1.32
0.47 0.56 0.55 0.49 0.43 0.40 0.45 0.45 0.43 0.39 0.40 0.38 0.37 0.37 0.44 0.59 0.67 0.51 0.49 0.56 0.69 0.80 0.86 0.88 0.84 0.80 0.83 0.82 0.78 0.78 0.87 1.06 1.27 1.46 1.46 1.37 1.44 1.34 1.24 1.15 1.14 1.10 1.06
0.22 0.26 0.27 0.28 0.27 0.29 0.31 0.32 0.33 0.32 0.30 0.29 0.36 0.44 0.46 0.47 0.52 0.42 0.42 0.53 0.72 0.84 0.83 0.78 0.84 0.85 0.88 0.93 0.83 0.84 0.80 0.81 0.91 0.97 1.11 1.31 1.44 1.58 1.52 1.40 1.39 1.32 1.23
0.06 0.08 0.10 0.12 0.14 0.17 0.18 0.21 0.30 0.33 0.34 0.37 0.48 0.56 0.49 0.41 0.45 0.45 0.51 0.67 0.79 0.87 0.83 0.82 0.89 0.90 1.03 1.05 0.95 0.98 0.92 0.87 0.86 0.97 1.07 1.17 1.25 1.37 1.47 1.44 1.40 1.36 1.26
0.00 0.00 0.01 0.01 0.02 0.05 0.08 0.11 0.17 0.24 0.31 0.38 0.40 0.38 0.38 0.44 0.49 0.48 0.60 0.79 0.91 1.01 0.96 0.95 1.13 1.06 1.01 0.94 0.90 1.04 1.01 0.85 0.75 0.81 0.87 0.94 0.98 1.07 1.18 1.18 1.26 1.30 1.23
0.00 0.00 0.00 0.00 0.00 0.01 0.02 0.03 0.06 0.11 0.15 0.17 0.19 0.22 0.29 0.45 0.51 0.52 0.72 0.81 0.87 1.02 1.05 1.01 0.94 1.04 0.96 0.87 0.85 0.90 1.03 0.89 0.80 0.82 0.82 0.84 0.86 0.89 0.94 1.00 1.08 1.14 1.17
0.00 0.00 0.00 0.00 0.00 0.01 0.01 0.02 0.02 0.04 0.06 0.10 0.12 0.16 0.22 0.30 0.37 0.43 0.56 0.68 0.75 0.93 1.01 0.92 0.81 1.02 0.96 0.85 0.77 0.78 0.90 0.95 0.90 0.93 0.91 0.84 0.79 0.77 0.75 0.82 0.91 0.98 1.03
0.00 0.00 0.00 0.00 0.01 0.01 0.01 0.01 0.02 0.03 0.06 0.07 0.11 0.17 0.23 0.27 0.28 0.34 0.42 0.50 0.62 0.80 0.86 0.87 0.88 0.90 0.81 0.76 0.84 0.85 0.86 0.88 0.95 0.98 0.86 0.70 0.64 0.64 0.68 0.78 0.89 0.98 1.03
0.00 0.00 0.00 0.01 0.01 0.01 0.01 0.02 0.02 0.02 0.05 0.08 0.15 0.21 0.25 0.27 0.28 0.34 0.42 0.46 0.56 0.64 0.66 0.70 0.74 0.70 0.69 0.72 0.78 0.86 0.88 0.91 0.91 0.86 0.75 0.61 0.57 0.59 0.61 0.65 0.76 0.90 1.03
0.00 0.00 0.00 0.01 0.01 0.01 0.01 0.01 0.02 0.02 0.04 0.10 0.14 0.17 0.18 0.20 0.23 0.30 0.41 0.49 0.60 0.70 0.71 0.66 0.68 0.68 0.67 0.66 0.69 0.71 0.73 0.71 0.72 0.70 0.66 0.65 0.63 0.62 0.58 0.58 0.63 0.67 0.71
0.00 0.00 0.00 0.01 0.01 0.02 0.02 0.02 0.01 0.01 0.02 0.04 0.05 0.08 0.14 0.17 0.13 0.15 0.24 0.38 0.54 0.74 0.95 0.98 0.99 0.93 0.83 0.72 0.62 0.54 0.50 0.52 0.56 0.60 0.62 0.60 0.58 0.59 0.60 0.60 0.63 0.66 0.63
0.00 0.00 0.00 0.00 0.01 0.02 0.03 0.06 0.08 0.05 0.01 0.01 0.01 0.04 0.10 0.15 0.13 0.17 0.22 0.27 0.39 0.67 1.02 1.04 1.02 0.87 0.73 0.65 0.53 0.40 0.33 0.35 0.41 0.44 0.48 0.51 0.50 0.50 0.54 0.55 0.54 0.58 0.60
0.00 0.00 0.00 0.01 0.01 0.02 0.02 0.06 0.16 0.21 0.16 0.06 0.01 0.02 0.07 0.14 0.19 0.27 0.35 0.45 0.52 0.63 0.72 0.72 0.64 0.55 0.47 0.39 0.35 0.30 0.23 0.25 0.31 0.33 0.37 0.39 0.38 0.41 0.43 0.48 0.49 0.48 0.50
0.00 0.00 0.03 0.05 0.03 0.01 0.03 0.10 0.14 0.06 0.04 0.06 0.05 0.02 0.02 0.05 0.10 0.17 0.27 0.37 0.39 0.41 0.39 0.33 0.27 0.22 0.21 0.18 0.18 0.18 0.16 0.17 0.21 0.26 0.28 0.29 0.30 0.31 0.35 0.39 0.42 0.45 0.44
0.00 0.00 0.02 0.07 0.07 0.03 0.04 0.08 0.06 0.03 0.04 0.06 0.06 0.04 0.02 0.03 0.07 0.10 0.13 0.17 0.16 0.17 0.16 0.15 0.12 0.09 0.09 0.08 0.08 0.10 0.10 0.12 0.15 0.18 0.20 0.23 0.25 0.25 0.28 0.31 0.33 0.36 0.35
0.00 0.00 0.01 0.03 0.06 0.04 0.04 0.05 0.03 0.03 0.04 0.04 0.03 0.01 0.02 0.06 0.07 0.07 0.07 0.06 0.07 0.08 0.09 0.10 0.07 0.07 0.06 0.06 0.08 0.10 0.12 0.13 0.13 0.16 0.17 0.18 0.21 0.23 0.25 0.27 0.30 0.31 0.33
0.00 0.00 0.01 0.03 0.04 0.03 0.02 0.04 0.05 0.03 0.02 0.03 0.03 0.02 0.03 0.08 0.07 0.05 0.04 0.04 0.03 0.04 0.08 0.10 0.11 0.11 0.08 0.08 0.09 0.10 0.11 0.12 0.12 0.13 0.15 0.17 0.17 0.18 0.21 0.24 0.27 0.29 0.29
0.01 0.02 0.02 0.04 0.05 0.03 0.02 0.03 0.06 0.06 0.03 0.03 0.04 0.03 0.03 0.06 0.07 0.08 0.07 0.06 0.08 0.10 0.08 0.07 0.10 0.11 0.09 0.09 0.10 0.11 0.12 0.14 0.15 0.14 0.15 0.15 0.15 0.16 0.18 0.19 0.22 0.24 0.26
0.01 0.01 0.02 0.03 0.04 0.04 0.04 0.04 0.04 0.03 0.03 0.05 0.06 0.05 0.05 0.07 0.09 0.07 0.05 0.09 0.11 0.10 0.09 0.07 0.06 0.08 0.08 0.09 0.10 0.11 0.11 0.14 0.16 0.16 0.16 0.17 0.17 0.17 0.18 0.20 0.23 0.26 0.32
0.02 0.02 0.02 0.03 0.05 0.04 0.04 0.05 0.04 0.02 0.03 0.06 0.04 0.04 0.03 0.03 0.04 0.03 0.03 0.05 0.07 0.06 0.06 0.06 0.06 0.06 0.07 0.08 0.10 0.11 0.14 0.17 0.18 0.18 0.17 0.18 0.20 0.21 0.22 0.25 0.30 0.34 0.39
0.04 0.03 0.03 0.03 0.04 0.04 0.05 0.05 0.05 0.04 0.04 0.03 0.02 0.04 0.04 0.03 0.03 0.03 0.03 0.03 0.04 0.04 0.05 0.05 0.05 0.06 0.07 0.07 0.09 0.12 0.14 0.15 0.16 0.18 0.19 0.21 0.24 0.24 0.25 0.26 0.28 0.31 0.36

GEFSGL_prec_meanprecacc_114.txt.gz
Total_Precipitation_Accumulation
0.99 1.01 1.00 0.99 0.90 0.89 0.94 0.95 0.94 0.95 0.99 0.96 0.88 0.82 0.89 0.88 0.83 0.88 0.95 1.01 1.09 1.22 1.36 1.47 1.60 1.86 2.16 2.19 2.13 1.99 1.83 1.64 1.36 1.22 1.02 0.90 1.13 1.20 1.18 1.04 1.02 0.97 0.80
0.92 0.95 0.94 0.85 0.81 0.77 0.76 0.73 0.66 0.64 0.67 0.75 0.83 0.79 0.77 0.79 0.81 0.86 0.89 0.93 0.95 1.03 1.11 1.22 1.36 1.65 2.02 2.24 2.33 2.22 2.04 1.87 1.68 1.52 1.21 0.94 1.01 1.28 1.42 1.34 1.13 0.99 0.90
1.00 0.86 0.78 0.74 0.71 0.69 0.61 0.57 0.55 0.50 0.50 0.54 0.63 0.64 0.72 0.79 0.81 0.83 0.85 0.88 0.90 0.99 1.13 1.17 1.20 1.36 1.57 1.81 2.00 2.11 2.10 2.07 1.99 1.72 1.46 1.19 1.08 1.16 1.39 1.41 1.30 1.26 1.11
1.12 1.01 0.86 0.77 0.70 0.64 0.57 0.54 0.51 0.49 0.52 0.58 0.70 0.74 0.69 0.67 0.72 0.82 0.86 0.80 0.80 0.85 0.94 1.02 1.10 1.12 1.24 1.41 1.54 1.73 1.94 2.15 2.20 2.02 1.76 1.48 1.33 1.18 1.24 1.38 1.46 1.40 1.31
1.09 1.07 0.92 0.86 0.78 0.65 0.60 0.60 0.58 0.61 0.57 0.59 0.70 0.80 0.87 0.82 0.79 0.87 0.84 0.82 0.83 0.81 0.87 0.87 0.92 0.93 0.95 1.10 1.17 1.40 1.72 1.98 2.08 2.11 1.98 1.70 1.45 1.26 1.04 1.09 1.34 1.54 1.53
0.75 0.81 0.77 0.69 0.61 0.58 0.57 0.55 0.52 0.51 0.47 0.47 0.51 0.58 0.67 0.72 0.92 0.87 0.71 0.69 0.74 0.80 0.85 0.85 0.86 0.80 0.77 0.79 0.90 1.04 1.34 1.55 1.68 1.72 1.73 1.58 1.40 1.26 1.19 1.15 1.19 1.30 1.38
0.47 0.56 0.55 0.49 0.43 0.40 0.45 0.45 0.43 0.39 0.40 0.38 0.37 0.37 0.44 0.59 0.67 0.51 0.49 0.56 0.70 0.80 0.86 0.89 0.85 0.81 0.84 0.83 0.80 0.79 0.88 1.08 1.28 1.46 1.47 1.38 1.44 1.35 1.26 1.16 1.16 1.15 1.14
0.22 0.26 0.27 0.28 0.27 0.29 0.31 0.32 0.33 0.32 0.30 0.29 0.36 0.44 0.46 0.47 0.53 0.43 0.42 0.53 0.72 0.84 0.83 0.79 0.85 0.86 0.89 0.94 0.84 0.86 0.81 0.83 0.93 0.98 1.11 1.31 1.45 1.58 1.53 1.41 1.41 1.34 1.27
0.06 0.08 0.10 0.12 0.14 0.17 0.18 0.21 0.30 0.33 0.34 0.37 0.48 0.56 0.49 0.41 0.45 0.46 0.51 0.67 0.79 0.87 0.83 0.82 0.89 0.91 1.03 1.06 0.95 0.99 0.94 0.90 0.88 1.00 1.08 1.18 1.27 1.38 1.48 1.45 1.42 1.37 1.29
0.00 0.00 0.01 0.02 0.02 0.05 0.08 0.11 0.17 0.24 0.31 0.38 0.41 0.38 0.38 0.44 0.50 0.49 0.60 0.79 0.91 1.01 0.97 0.96 1.13 1.06 1.01 0.95 0.91 1.05 1.02 0.87 0.78 0.83 0.89 0.96 1.00 1.10 1.21 1.20 1.28 1.32 1.25
0.00 0.00 0.00 0.00 0.00 0.01 0.02 0.03 0.06 0.11 0.15 0.17 0.19 0.22 0.29 0.45 0.51 0.53 0.72 0.81 0.87 1.02 1.05 1.01 0.94 1.05 0.97 0.88 0.87 0.91 1.04 0.91 0.83 0.84 0.83 0.86 0.88 0.91 0.96 1.02 1.09 1.17 1.19
0.00 0.00 0.00 0.00 0.00 0.01 0.02 0.02 0.02 0.04 0.07 0.10 0.12 0.17 0.22 0.30 0.37 0.43 0.56 0.68 0.75 0.93 1.01 0.92 0.82 1.03 0.97 0.86 0.78 0.79 0.91 0.96 0.93 0.95 0.92 0.85 0.80 0.78 0.77 0.83 0.91 0.99 1.05
0.00 0.00 0.00 0.00 0.01 0.01 0.01 0.02 0.02 0.03 0.06 0.07 0.12 0.18 0.24 0.28 0.28 0.34 0.42 0.50 0.62 0.80 0.86 0.87 0.88 0.90 0.81 0.77 0.85 0.86 0.86 0.88 0.95 0.98 0.87 0.70 0.65 0.64 0.69 0.78 0.90 0.98 1.03
0.00 0.00 0.00 0.01 0.01 0.01 0.01 0.02 0.02 0.03 0.05 0.09 0.15 0.21 0.25 0.28 0.28 0.34 0.42 0.46 0.56 0.64 0.66 0.70 0.74 0.70 0.69 0.73 0.78 0.86 0.88 0.91 0.92 0.87 0.75 0.61 0.57 0.59 0.61 0.65 0.76 0.90 1.04
0.00 0.00 0.00 0.01 0.02 0.02 0.01 0.01 0.02 0.02 0.05 0.10 0.14 0.17 0.18 0.20 0.24 0.30 0.41 0.49 0.60 0.70 0.71 0.66 0.68 0.68 0.67 0.66 0.69 0.71 0.73 0.71 0.72 0.70 0.67 0.65 0.63 0.62 0.59 0.58 0.64 0.67 0.71
0.00 0.00 0.00 0.01 0.02 0.02 0.03 0.02 0.02 0.01 0.02 0.04 0.05 0.09 0.14 0.17 0.14 0.15 0.24 0.38 0.54 0.74 0.95 0.98 0.99 0.93 0.83 0.72 0.62 0.54 0.50 0.52 0.56 0.60 0.62 0.60 0.58 0.59 0.60 0.60 0.63 0.66 0.63
0.00 0.00 0.00 0.01 0.01 0.02 0.04 0.08 0.09 0.06 0.02 0.02 0.02 0.06 0.11 0.15 0.14 0.17 0.23 0.27 0.39 0.67 1.02 1.04 1.02 0.87 0.73 0.65 0.53 0.40 0.34 0.35 0.41 0.44 0.48 0.51 0.50 0.50 0.54 0.55 0.54 0.58 0.60
0.00 0.01 0.01 0.01 0.02 0.02 0.03 0.07 0.18 0.23 0.17 0.07 0.03 0.04 0.09 0.15 0.20 0.27 0.36 0.45 0.52 0.64 0.73 0.72 0.64 0.55 0.48 0.39 0.35 0.30 0.23 0.25 0.31 0.33 0.37 0.39 0.38 0.41 0.43 0.48 0.49 0.48 0.50
0.00 0.01 0.03 0.06 0.03 0.02 0.03 0.11 0.16 0.09 0.07 0.08 0.08 0.05 0.05 0.08 0.12 0.18 0.28 0.38 0.40 0.41 0.39 0.33 0.27 0.23 0.21 0.18 0.18 0.18 0.16 0.17 0.22 0.26 0.28 0.29 0.30 0.31 0.35 0.39 0.42 0.45 0.44
0.00 0.01 0.02 0.07 0.08 0.04 0.05 0.09 0.07 0.06 0.07 0.08 0.08 0.07 0.06 0.07 0.09 0.11 0.14 0.17 0.17 0.18 0.16 0.15 0.12 0.09 0.09 0.09 0.09 0.10 0.10 0.12 0.15 0.19 0.20 0.23 0.25 0.25 0.28 0.31 0.33 0.36 0.35
0.00 0.00 0.01 0.03 0.07 0.05 0.05 0.06 0.04 0.05 0.06 0.07 0.05 0.04 0.06 0.10 0.10 0.09 0.08 0.07 0.07 0.08 0.10 0.10 0.08 0.07 0.06 0.07 0.08 0.11 0.12 0.13 0.13 0.16 0.17 0.18 0.21 0.24 0.25 0.27 0.30 0.31 0.33
0.00 0.01 0.01 0.04 0.05 0.03 0.03 0.05 0.07 0.05 0.04 0.05 0.05 0.04 0.06 0.12 0.11 0.09 0.05 0.04 0.03 0.05 0.08 0.11 0.11 0.11 0.08 0.08 0.09 0.10 0.11 0.12 0.12 0.13 0.15 0.17 0.17 0.18 0.21 0.24 0.27 0.29 0.29
0.02 0.02 0.02 0.04 0.05 0.03 0.03 0.04 0.07 0.08 0.06 0.06 0.07 0.05 0.06 0.09 0.10 0.11 0.09 0.07 0.08 0.10 0.08 0.07 0.10 0.11 0.09 0.09 0.10 0.11 0.12 0.14 0.15 0.14 0.15 0.15 0.15 0.16 0.18 0.20 0.22 0.24 0.26
0.01 0.01 0.02 0.04 0.05 0.04 0.04 0.04 0.05 0.05 0.06 0.09 0.09 0.08 0.08 0.10 0.12 0.10 0.08 0.11 0.11 0.10 0.09 0.07 0.06 0.08 0.08 0.09 0.10 0.11 0.11 0.14 0.16 0.16 0.16 0.17 0.17 0.17 0.18 0.20 0.23 0.27 0.32
0.03 0.03 0.03 0.04 0.06 0.05 0.05 0.06 0.05 0.04 0.06 0.09 0.08 0.08 0.07 0.07 0.08 0.07 0.06 0.07 0.08 0.06 0.06 0.06 0.06 0.07 0.07 0.08 0.10 0.11 0.14 0.17 0.18 0.18 0.17 0.18 0.20 0.21 0.22 0.25 0.30 0.34 0.39
0.05 0.05 0.04 0.05 0.06 0.06 0.07 0.06 0.06 0.07 0.07 0.07 0.07 0.09 0.09 0.09 0.09 0.08 0.07 0.06 0.05 0.05 0.05 0.05 0.05 0.06 0.07 0.07 0.09 0.12 0.14 0.15 0.16 0.18 0.19 0.21 0.24 0.24 0.25 0.26 0.28 0.31 0.36

GEFSGL_prec_meanprecacc_120.txt.gz
Total_Precipitation_Accumulation
0.99 1.01 1.00 0.99 0.90 0.89 0.94 0.95 0.94 0.95 0.99 0.97 0.88 0.82 0.89 0.89 0.85 0.90 0.95 1.01 1.09 1.23 1.38 1.51 1.65 1.88 2.17 2.20 2.14 2.00 1.85 1.66 1.39 1.24 1.05 0.93 1.17 1.25 1.23 1.08 1.05 1.01 0.84
0.92 0.95 0.94 0.85 0.81 0.78 0.76 0.73 0.66 0.64 0.67 0.76 0.84 0.79 0.77 0.80 0.81 0.87 0.89 0.93 0.95 1.03 1.13 1.25 1.41 1.69 2.03 2.25 2.34 2.22 2.05 1.89 1.71 1.54 1.23 0.96 1.04 1.32 1.47 1.39 1.16 1.01 0.93
1.00 0.86 0.78 0.74 0.71 0.69 0.61 0.57 0.55 0.50 0.50 0.54 0.63 0.64 0.73 0.79 0.82 0.84 0.86 0.88 0.91 1.00 1.13 1.19 1.23 1.42 1.60 1.82 2.01 2.13 2.11 2.09 2.01 1.75 1.48 1.21 1.10 1.19 1.42 1.45 1.33 1.28 1.13
1.12 1.01 0.86 0.77 0.70 0.64 0.57 0.54 0.51 0.49 0.52 0.58 0.70 0.74 0.70 0.67 0.72 0.83 0.86 0.81 0.80 0.86 0.94 1.04 1.12 1.16 1.30 1.43 1.55 1.74 1.95 2.16 2.21 2.06 1.80 1.49 1.34 1.19 1.26 1.42 1.50 1.42 1.33
1.09 1.07 0.92 0.86 0.79 0.65 0.60 0.60 0.58 0.61 0.57 0.59 0.70 0.80 0.87 0.82 0.79 0.87 0.84 0.83 0.83 0.82 0.87 0.87 0.93 0.94 0.99 1.15 1.20 1.41 1.73 1.99 2.10 2.15 2.02 1.73 1.47 1.28 1.06 1.12 1.37 1.57 1.55
0.75 0.82 0.77 0.69 0.61 0.58 0.57 0.55 0.52 0.51 0.47 0.47 0.51 0.58 0.67 0.72 0.92 0.87 0.71 0.69 0.75 0.81 0.85 0.85 0.86 0.81 0.78 0.82 0.94 1.06 1.35 1.57 1.70 1.75 1.76 1.61 1.42 1.28 1.21 1.16 1.20 1.32 1.40
0.47 0.56 0.55 0.49 0.43 0.40 0.45 0.45 0.43 0.39 0.40 0.38 0.37 0.37 0.44 0.59 0.67 0.51 0.50 0.56 0.70 0.81 0.87 0.90 0.86 0.81 0.84 0.84 0.82 0.81 0.90 1.09 1.30 1.48 1.49 1.40 1.45 1.36 1.27 1.18 1.18 1.17 1.15
0.22 0.26 0.27 0.28 0.27 0.29 0.31 0.32 0.33 0.32 0.30 0.29 0.37 0.44 0.46 0.47 0.53 0.43 0.42 0.53 0.72 0.85 0.84 0.80 0.86 0.86 0.89 0.94 0.85 0.88 0.83 0.84 0.95 0.99 1.12 1.33 1.46 1.60 1.55 1.43 1.43 1.37 1.28
0.06 0.08 0.10 0.12 0.14 0.17 0.18 0.21 0.30 0.33 0.34 0.37 0.49 0.56 0.49 0.42 0.45 0.46 0.52 0.67 0.79 0.88 0.83 0.82 0.90 0.92 1.04 1.06 0.96 1.00 0.95 0.91 0.90 1.00 1.09 1.20 1.28 1.39 1.50 1.48 1.44 1.40 1.31
0.00 0.00 0.01 0.02 0.03 0.05 0.08 0.11 0.17 0.24 0.31 0.38 0.41 0.38 0.38 0.44 0.50 0.49 0.61 0.79 0.91 1.02 0.97 0.96 1.13 1.07 1.02 0.95 0.92 1.05 1.03 0.88 0.79 0.84 0.90 0.97 1.01 1.11 1.22 1.22 1.31 1.37 1.29
0.00 0.00 0.00 0.00 0.00 0.01 0.02 0.03 0.06 0.11 0.15 0.18 0.19 0.22 0.29 0.46 0.51 0.54 0.73 0.82 0.88 1.03 1.06 1.02 0.94 1.05 0.98 0.89 0.87 0.92 1.05 0.92 0.84 0.86 0.87 0.88 0.89 0.93 0.98 1.04 1.13 1.21 1.23
0.00 0.00 0.01 0.01 0.00 0.01 0.02 0.02 0.02 0.04 0.07 0.10 0.12 0.17 0.23 0.30 0.38 0.44 0.57 0.69 0.76 0.94 1.02 0.93 0.82 1.04 0.98 0.88 0.79 0.80 0.92 0.96 0.95 0.98 0.96 0.89 0.82 0.80 0.79 0.85 0.94 1.02 1.09
0.00 0.00 0.00 0.01 0.01 0.01 0.01 0.02 0.02 0.03 0.06 0.07 0.12 0.18 0.24 0.28 0.29 0.35 0.43 0.52 0.63 0.81 0.87 0.88 0.89 0.91 0.83 0.79 0.86 0.87 0.87 0.89 0.97 1.02 0.90 0.75 0.68 0.67 0.71 0.80 0.92 1.01 1.07
0.00 0.00 0.00 0.01 0.01 0.01 0.02 0.02 0.03 0.03 0.05 0.09 0.15 0.22 0.25 0.28 0.29 0.35 0.43 0.48 0.57 0.66 0.68 0.71 0.75 0.71 0.69 0.73 0.79 0.86 0.89 0.92 0.93 0.88 0.76 0.63 0.60 0.62 0.64 0.67 0.79 0.92 1.06
0.00 0.00 0.01 0.01 0.02 0.02 0.02 0.02 0.03 0.03 0.05 0.11 0.14 0.17 0.19 0.21 0.24 0.31 0.43 0.51 0.62 0.72 0.74 0.68 0.69 0.69 0.67 0.66 0.70 0.72 0.73 0.72 0.73 0.71 0.67 0.65 0.64 0.63 0.60 0.60 0.65 0.69 0.72
0.00 0.00 0.00 0.01 0.02 0.02 0.03 0.03 0.02 0.02 0.03 0.05 0.06 0.09 0.15 0.18 0.15 0.17 0.26 0.40 0.56 0.77 0.99 1.01 1.00 0.94 0.84 0.73 0.63 0.55 0.51 0.53 0.57 0.62 0.63 0.61 0.59 0.60 0.61 0.61 0.64 0.67 0.64
0.00 0.00 0.00 0.01 0.02 0.02 0.04 0.08 0.10 0.07 0.03 0.02 0.03 0.06 0.12 0.17 0.15 0.19 0.25 0.29 0.41 0.70 1.04 1.06 1.03 0.88 0.73 0.65 0.54 0.41 0.34 0.35 0.42 0.44 0.49 0.52 0.51 0.51 0.54 0.56 0.55 0.59 0.60
0.00 0.01 0.01 0.02 0.02 0.02 0.03 0.08 0.19 0.24 0.19 0.08 0.04 0.05 0.10 0.17 0.23 0.30 0.38 0.48 0.55 0.66 0.75 0.74 0.65 0.56 0.48 0.39 0.35 0.30 0.24 0.26 0.32 0.33 0.37 0.39 0.39 0.41 0.44 0.49 0.50 0.49 0.51
0.01 0.01 0.03 0.06 0.04 0.03 0.04 0.12 0.17 0.10 0.09 0.11 0.09 0.06 0.07 0.10 0.15 0.21 0.31 0.41 0.43 0.45 0.43 0.36 0.29 0.24 0.21 0.18 0.19 0.19 0.17 0.18 0.22 0.27 0.29 0.30 0.30 0.32 0.36 0.39 0.43 0.46 0.45
0.00 0.01 0.02 0.08 0.08 0.04 0.06 0.10 0.08 0.07 0.09 0.11 0.11 0.09 0.08 0.09 0.12 0.15 0.18 0.21 0.21 0.22 0.20 0.18 0.14 0.10 0.10 0.09 0.09 0.10 0.10 0.13 0.16 0.20 0.21 0.23 0.26 0.26 0.28 0.31 0.34 0.36 0.36
0.00 0.01 0.01 0.04 0.07 0.05 0.05 0.07 0.05 0.06 0.08 0.09 0.08 0.07 0.08 0.13 0.14 0.14 0.13 0.12 0.13 0.14 0.16 0.14 0.10 0.09 0.07 0.07 0.09 0.11 0.12 0.13 0.14 0.17 0.18 0.19 0.21 0.24 0.25 0.28 0.30 0.31 0.33
0.01 0.01 0.02 0.04 0.05 0.04 0.03 0.06 0.07 0.06 0.06 0.07 0.08 0.07 0.09 0.14 0.14 0.13 0.11 0.11 0.10 0.12 0.15 0.17 0.15 0.14 0.10 0.09 0.09 0.10 0.11 0.12 0.13 0.13 0.15 0.17 0.17 0.18 0.21 0.24 0.27 0.29 0.29
0.02 0.03 0.03 0.04 0.06 0.04 0.04 0.05 0.08 0.09 0.07 0.07 0.09 0.08 0.09 0.12 0.13 0.14 0.14 0.14 0.17 0.18 0.16 0.14 0.16 0.15 0.11 0.10 0.10 0.11 0.12 0.14 0.15 0.15 0.16 0.16 0.15 0.16 0.18 0.20 0.22 0.24 0.26
0.03 0.03 0.03 0.04 0.05 0.05 0.05 0.05 0.06 0.06 0.08 0.10 0.11 0.10 0.11 0.13 0.15 0.13 0.12 0.17 0.20 0.19 0.17 0.14 0.13 0.12 0.11 0.11 0.11 0.11 0.11 0.14 0.16 0.16 0.16 0.17 0.18 0.18 0.18 0.20 0.23 0.27 0.32
0.04 0.04 0.04 0.05 0.07 0.07 0.07 0.07 0.07 0.06 0.08 0.11 0.10 0.10 0.10 0.11 0.12 0.10 0.11 0.14 0.16 0.15 0.13 0.13 0.13 0.12 0.11 0.11 0.11 0.12 0.14 0.17 0.18 0.18 0.17 0.18 0.20 0.21 0.22 0.25 0.30 0.35 0.39
0.05 0.06 0.06 0.07 0.08 0.09 0.10 0.10 0.09 0.09 0.10 0.10 0.10 0.12 0.12 0.13 0.14 0.13 0.12 0.13 0.14 0.14 0.12 0.12 0.12 0.12 0.11 0.10 0.11 0.14 0.16 0.16 0.17 0.18 0.19 0.21 0.24 0.24 0.25 0.26 0.28 0.32 0.36

GEFSGL_prec_meanprecacc_126.txt.gz
Total_Precipitation_Accumulation
1.01 1.02 1.01 0.99 0.90 0.89 0.94 0.95 0.94 0.95 0.99 0.98 0.89 0.82 0.89 0.89 0.85 0.91 0.96 1.02 1.10 1.25 1.40 1.52 1.67 1.91 2.19 2.21 2.16 2.03 1.89 1.71 1.46 1.32 1.11 1.01 1.26 1.34 1.30 1.16 1.12 1.07 0.87
0.93 0.96 0.95 0.85 0.81 0.78 0.76 0.73 0.66 0.64 0.67 0.76 0.84 0.79 0.78 0.80 0.82 0.88 0.90 0.94 0.96 1.05 1.14 1.26 1.43 1.72 2.06 2.27 2.35 2.26 2.09 1.92 1.75 1.59 1.27 1.03 1.12 1.42 1.55 1.46 1.23 1.09 0.98
1.01 0.87 0.78 0.74 0.71 0.69 0.61 0.57 0.55 0.50 0.50 0.54 0.63 0.64 0.73 0.80 0.82 0.84 0.87 0.90 0.92 1.01 1.15 1.20 1.25 1.44 1.63 1.85 2.03 2.16 2.15 2.11 2.05 1.79 1.51 1.25 1.15 1.26 1.49 1.50 1.40 1.36 1.18
1.12 1.01 0.86 0.77 0.70 0.64 0.57 0.54 0.51 0.49 0.52 0.58 0.70 0.74 0.70 0.67 0.72 0.83 0.88 0.83 0.81 0.86 0.95 1.04 1.13 1.17 1.32 1.46 1.58 1.76 1.97 2.20 2.26 2.10 1.84 1.52 1.38 1.24 1.33 1.48 1.55 1.47 1.37
1.09 1.08 0.92 0.86 0.79 0.65 0.60 0.60 0.58 0.61 0.57 0.59 0.70 0.81 0.87 0.82 0.79 0.88 0.86 0.84 0.83 0.82 0.87 0.87 0.93 0.95 1.01 1.18 1.23 1.44 1.76 2.02 2.13 2.19 2.08 1.78 1.51 1.31 1.11 1.18 1.42 1.61 1.58
0.75 0.82 0.78 0.69 0.61 0.58 0.57 0.55 0.52 0.51 0.47 0.47 0.51 0.58 0.68 0.72 0.92 0.88 0.73 0.69 0.75 0.81 0.86 0.86 0.87 0.81 0.79 0.85 0.98 1.09 1.38 1.59 1.73 1.80 1.82 1.67 1.47 1.33 1.27 1.22 1.25 1.36 1.44
0.47 0.56 0.55 0.49 0.43 0.41 0.45 0.45 0.43 0.39 0.40 0.38 0.37 0.38 0.44 0.59 0.67 0.51 0.50 0.56 0.70 0.82 0.89 0.91 0.87 0.82 0.85 0.86 0.87 0.87 0.93 1.11 1.32 1.52 1.53 1.44 1.50 1.41 1.32 1.22 1.22 1.21 1.20
0.23 0.26 0.28 0.28 0.27 0.29 0.31 0.32 0.33 0.32 0.30 0.29 0.37 0.44 0.46 0.47 0.53 0.43 0.42 0.53 0.73 0.86 0.86 0.82 0.88 0.88 0.90 0.96 0.88 0.94 0.90 0.88 0.96 1.01 1.16 1.36 1.50 1.64 1.60 1.49 1.49 1.42 1.32
0.06 0.08 0.10 0.12 0.14 0.17 0.18 0.21 0.30 0.33 0.34 0.37 0.49 0.56 0.50 0.42 0.46 0.47 0.52 0.67 0.80 0.88 0.85 0.84 0.92 0.95 1.06 1.08 0.99 1.04 1.00 0.97 0.93 1.03 1.12 1.23 1.32 1.42 1.54 1.53 1.49 1.46 1.35
0.00 0.00 0.01 0.02 0.03 0.05 0.08 0.11 0.17 0.24 0.31 0.39 0.41 0.38 0.38 0.44 0.50 0.49 0.61 0.80 0.92 1.02 0.98 0.97 1.16 1.10 1.05 0.98 0.95 1.09 1.07 0.92 0.84 0.88 0.93 1.00 1.05 1.15 1.25 1.26 1.35 1.41 1.34
0.00 0.00 0.00 0.00 0.00 0.01 0.02 0.03 0.06 0.11 0.15 0.18 0.19 0.23 0.30 0.46 0.52 0.55 0.73 0.82 0.88 1.04 1.07 1.03 0.96 1.09 1.01 0.92 0.90 0.95 1.09 0.96 0.88 0.89 0.90 0.91 0.93 0.96 1.01 1.07 1.16 1.24 1.28
0.00 0.00 0.01 0.01 0.00 0.01 0.02 0.02 0.02 0.04 0.07 0.10 0.13 0.17 0.23 0.31 0.39 0.45 0.58 0.69 0.77 0.95 1.03 0.94 0.85 1.08 1.02 0.92 0.82 0.84 0.96 1.01 1.00 1.01 0.98 0.92 0.86 0.83 0.81 0.87 0.96 1.05 1.12
0.00 0.00 0.00 0.01 0.01 0.01 0.01 0.02 0.02 0.03 0.06 0.08 0.12 0.19 0.25 0.30 0.31 0.37 0.44 0.53 0.64 0.82 0.88 0.90 0.92 0.96 0.89 0.83 0.90 0.91 0.91 0.93 1.01 1.04 0.93 0.77 0.71 0.70 0.74 0.83 0.94 1.03 1.09
0.00 0.00 0.00 0.01 0.01 0.01 0.02 0.02 0.03 0.03 0.06 0.10 0.17 0.23 0.27 0.30 0.31 0.37 0.45 0.49 0.59 0.68 0.69 0.73 0.77 0.75 0.75 0.78 0.83 0.90 0.93 0.95 0.95 0.90 0.78 0.65 0.63 0.65 0.67 0.70 0.81 0.94 1.08
0.00 0.00 0.01 0.01 0.02 0.02 0.02 0.02 0.03 0.03 0.06 0.12 0.16 0.19 0.21 0.23 0.28 0.35 0.47 0.54 0.65 0.75 0.76 0.70 0.72 0.72 0.71 0.71 0.74 0.75 0.77 0.76 0.76 0.73 0.69 0.67 0.67 0.66 0.64 0.64 0.68 0.72 0.75
0.00 0.00 0.00 0.01 0.02 0.03 0.04 0.03 0.02 0.02 0.03 0.05 0.07 0.10 0.17 0.20 0.18 0.20 0.30 0.43 0.59 0.80 1.02 1.03 1.03 0.97 0.87 0.77 0.68 0.59 0.55 0.56 0.59 0.64 0.66 0.63 0.61 0.63 0.66 0.67 0.69 0.70 0.67
0.00 0.00 0.00 0.01 0.02 0.03 0.05 0.09 0.10 0.07 0.03 0.03 0.04 0.07 0.13 0.18 0.17 0.22 0.27 0.32 0.44 0.73 1.08 1.09 1.07 0.92 0.77 0.70 0.59 0.46 0.39 0.39 0.45 0.47 0.51 0.54 0.53 0.53 0.58 0.61 0.59 0.62 0.63
0.00 0.01 0.01 0.02 0.03 0.03 0.04 0.09 0.19 0.25 0.19 0.09 0.04 0.05 0.11 0.19 0.24 0.32 0.41 0.51 0.57 0.69 0.80 0.79 0.70 0.62 0.54 0.45 0.42 0.37 0.30 0.32 0.37 0.38 0.40 0.41 0.41 0.44 0.47 0.53 0.53 0.51 0.53
0.01 0.01 0.04 0.06 0.04 0.03 0.05 0.12 0.18 0.11 0.10 0.12 0.11 0.07 0.08 0.11 0.16 0.23 0.34 0.45 0.46 0.48 0.47 0.42 0.35 0.30 0.29 0.26 0.26 0.26 0.24 0.25 0.28 0.32 0.33 0.32 0.32 0.35 0.38 0.42 0.45 0.48 0.46
0.00 0.01 0.03 0.08 0.09 0.05 0.06 0.11 0.09 0.08 0.10 0.12 0.13 0.11 0.11 0.12 0.14 0.17 0.21 0.25 0.25 0.25 0.25 0.24 0.21 0.18 0.19 0.18 0.19 0.19 0.19 0.20 0.22 0.25 0.25 0.26 0.28 0.29 0.31 0.34 0.37 0.38 0.37
0.00 0.01 0.02 0.05 0.08 0.05 0.06 0.07 0.06 0.07 0.09 0.11 0.10 0.10 0.12 0.16 0.17 0.17 0.16 0.15 0.17 0.18 0.20 0.21 0.19 0.19 0.19 0.19 0.20 0.21 0.23 0.23 0.21 0.23 0.23 0.21 0.24 0.27 0.28 0.30 0.32 0.32 0.34
0.01 0.01 0.02 0.05 0.06 0.04 0.04 0.06 0.08 0.07 0.07 0.09 0.10 0.10 0.12 0.18 0.18 0.17 0.15 0.14 0.14 0.15 0.21 0.24 0.25 0.26 0.23 0.21 0.22 0.24 0.24 0.24 0.22 0.21 0.21 0.21 0.19 0.21 0.24 0.26 0.28 0.30 0.30
0.03 0.03 0.03 0.05 0.06 0.05 0.04 0.05 0.09 0.11 0.09 0.09 0.11 0.10 0.11 0.14 0.16 0.19 0.19 0.19 0.21 0.23 0.21 0.22 0.26 0.27 0.25 0.23 0.23 0.26 0.29 0.28 0.25 0.23 0.23 0.21 0.19 0.18 0.20 0.21 0.22 0.25 0.26
0.03 0.03 0.03 0.05 0.06 0.06 0.06 0.06 0.07 0.07 0.09 0.12 0.13 0.12 0.14 0.16 0.17 0.16 0.17 0.23 0.25 0.23 0.22 0.21 0.22 0.25 0.26 0.26 0.25 0.26 0.28 0.29 0.28 0.27 0.25 0.25 0.22 0.20 0.20 0.21 0.24 0.27 0.32
0.04 0.04 0.05 0.06 0.08 0.08 0.08 0.09 0.08 0.08 0.11 0.14 0.12 0.12 0.12 0.13 0.15 0.13 0.15 0.20 0.22 0.20 0.20 0.20 0.21 0.23 0.24 0.25 0.26 0.26 0.30 0.32 0.32 0.29 0.28 0.29 0.28 0.25 0.23 0.26 0.31 0.35 0.39
0.06 0.06 0.07 0.08 0.09 0.10 0.11 0.12 0.12 0.12 0.13 0.13 0.12 0.14 0.15 0.16 0.17 0.16 0.16 0.17 0.19 0.20 0.19 0.20 0.21 0.21 0.22 0.23 0.26 0.29 0.30 0.28 0.28 0.29 0.30 0.32 0.34 0.31 0.28 0.27 0.29 0.32 0.36

GEFSGL_prec_meanprecacc_132.txt.gz
Total_Precipitation_Accumulation
1.01 1.03 1.03 1.01 0.91 0.90 0.95 0.95 0.94 0.95 0.99 0.98 0.89 0.82 0.89 0.89 0.85 0.91 0.96 1.02 1.10 1.25 1.40 1.53 1.68 1.92 2.20 2.22 2.17 2.04 1.90 1.72 1.47 1.34 1.15 1.06 1.33 1.43 1.36 1.21 1.17 1.13 0.91
0.94 0.97 0.96 0.87 0.82 0.78 0.77 0.74 0.66 0.64 0.67 0.76 0.84 0.79 0.78 0.80 0.82 0.88 0.90 0.94 0.97 1.05 1.15 1.27 1.44 1.73 2.07 2.28 2.36 2.26 2.10 1.93 1.76 1.61 1.30 1.06 1.16 1.48 1.61 1.53 1.29 1.13 1.01
1.02 0.87 0.79 0.75 0.72 0.70 0.61 0.57 0.55 0.50 0.50 0.54 0.63 0.64 0.73 0.80 0.83 0.85 0.87 0.91 0.93 1.01 1.16 1.21 1.27 1.46 1.65 1.86 2.05 2.17 2.15 2.12 2.06 1.81 1.52 1.27 1.20 1.31 1.54 1.55 1.47 1.41 1.22
1.13 1.02 0.87 0.77 0.70 0.64 0.57 0.54 0.51 0.49 0.52 0.58 0.70 0.74 0.70 0.68 0.73 0.84 0.88 0.84 0.83 0.87 0.96 1.05 1.15 1.19 1.35 1.48 1.59 1.77 1.98 2.21 2.27 2.11 1.85 1.54 1.41 1.29 1.38 1.53 1.60 1.53 1.44
1.10 1.08 0.92 0.86 0.79 0.65 0.60 0.61 0.58 0.61 0.57 0.59 0.70 0.81 0.87 0.83 0.80 0.89 0.86 0.84 0.84 0.83 0.88 0.88 0.94 0.97 1.03 1.20 1.24 1.45 1.77 2.04 2.14 2.20 2.09 1.79 1.53 1.35 1.14 1.23 1.48 1.67 1.65
0.76 0.83 0.78 0.70 0.61 0.58 0.57 0.55 0.52 0.51 0.47 0.47 0.51 0.58 0.68 0.72 0.93 0.89 0.74 0.70 0.75 0.82 0.87 0.86 0.88 0.83 0.81 0.87 0.99 1.11 1.40 1.61 1.74 1.81 1.84 1.69 1.49 1.35 1.30 1.26 1.31 1.44 1.49
0.48 0.57 0.56 0.50 0.44 0.41 0.45 0.46 0.43 0.39 0.40 0.38 0.37 0.38 0.44 0.60 0.68 0.52 0.51 0.57 0.71 0.82 0.89 0.92 0.88 0.83 0.87 0.88 0.89 0.89 0.95 1.12 1.33 1.53 1.56 1.47 1.52 1.43 1.35 1.25 1.26 1.26 1.25
0.23 0.27 0.28 0.29 0.28 0.29 0.31 0.32 0.33 0.32 0.30 0.29 0.37 0.44 0.46 0.48 0.53 0.44 0.43 0.54 0.73 0.87 0.87 0.83 0.89 0.90 0.93 0.99 0.92 0.97 0.92 0.89 0.98 1.03 1.17 1.38 1.52 1.67 1.63 1.53 1.53 1.46 1.37
0.07 0.08 0.11 0.13 0.15 0.17 0.18 0.21 0.30 0.33 0.34 0.37 0.49 0.56 0.50 0.42 0.46 0.48 0.53 0.68 0.81 0.89 0.85 0.85 0.92 0.96 1.09 1.13 1.04 1.09 1.03 0.99 0.95 1.05 1.14 1.25 1.34 1.46 1.58 1.60 1.56 1.52 1.39
0.01 0.01 0.01 0.02 0.03 0.06 0.08 0.11 0.17 0.24 0.31 0.39 0.41 0.38 0.38 0.44 0.51 0.50 0.63 0.81 0.93 1.03 0.99 0.98 1.16 1.11 1.08 1.03 1.01 1.15 1.11 0.95 0.87 0.90 0.95 1.02 1.07 1.18 1.30 1.32 1.43 1.49 1.40
0.01 0.01 0.01 0.01 0.01 0.01 0.02 0.03 0.06 0.11 0.15 0.18 0.19 0.23 0.30 0.46 0.52 0.56 0.75 0.85 0.91 1.06 1.08 1.04 0.97 1.10 1.04 0.96 0.96 1.01 1.14 1.00 0.92 0.95 0.95 0.94 0.96 1.00 1.05 1.11 1.21 1.31 1.35
0.01 0.01 0.01 0.01 0.01 0.01 0.02 0.02 0.02 0.04 0.07 0.10 0.13 0.17 0.23 0.31 0.39 0.46 0.60 0.73 0.81 0.98 1.06 0.95 0.85 1.09 1.05 0.95 0.86 0.88 1.01 1.06 1.05 1.07 1.06 0.98 0.90 0.87 0.86 0.92 1.01 1.11 1.18
0.01 0.01 0.01 0.01 0.01 0.01 0.02 0.02 0.02 0.03 0.06 0.08 0.12 0.19 0.25 0.30 0.32 0.39 0.46 0.56 0.68 0.86 0.91 0.92 0.94 0.98 0.90 0.86 0.93 0.95 0.96 0.97 1.06 1.10 0.99 0.85 0.78 0.75 0.80 0.90 1.01 1.11 1.17
0.00 0.01 0.01 0.01 0.02 0.01 0.02 0.02 0.03 0.03 0.06 0.10 0.17 0.23 0.27 0.30 0.32 0.40 0.48 0.52 0.61 0.71 0.72 0.76 0.79 0.77 0.77 0.80 0.86 0.95 0.97 1.00 1.01 0.96 0.84 0.71 0.71 0.75 0.75 0.78 0.90 1.03 1.16
0.00 0.00 0.01 0.01 0.02 0.02 0.02 0.02 0.03 0.03 0.06 0.12 0.16 0.20 0.21 0.24 0.28 0.37 0.50 0.58 0.68 0.78 0.80 0.73 0.74 0.74 0.73 0.73 0.78 0.81 0.83 0.81 0.82 0.80 0.75 0.73 0.74 0.75 0.74 0.72 0.77 0.81 0.84
0.00 0.00 0.01 0.01 0.02 0.03 0.04 0.03 0.02 0.02 0.03 0.06 0.07 0.10 0.17 0.20 0.18 0.21 0.32 0.46 0.62 0.84 1.06 1.07 1.06 0.99 0.90 0.80 0.73 0.66 0.63 0.64 0.66 0.71 0.73 0.70 0.68 0.71 0.75 0.75 0.77 0.79 0.76
0.00 0.00 0.00 0.01 0.02 0.03 0.05 0.09 0.10 0.07 0.03 0.03 0.04 0.07 0.13 0.18 0.18 0.22 0.29 0.34 0.46 0.76 1.11 1.12 1.10 0.95 0.81 0.74 0.64 0.54 0.48 0.49 0.54 0.55 0.58 0.61 0.60 0.61 0.66 0.70 0.69 0.72 0.72
0.00 0.01 0.01 0.02 0.03 0.03 0.04 0.09 0.19 0.25 0.20 0.09 0.04 0.06 0.11 0.19 0.24 0.32 0.42 0.52 0.58 0.71 0.82 0.82 0.74 0.66 0.59 0.50 0.47 0.44 0.39 0.42 0.48 0.48 0.49 0.49 0.48 0.51 0.54 0.61 0.62 0.60 0.61
0.01 0.01 0.04 0.06 0.04 0.03 0.05 0.13 0.18 0.11 0.10 0.12 0.11 0.07 0.08 0.11 0.16 0.23 0.35 0.46 0.47 0.50 0.50 0.45 0.38 0.35 0.35 0.32 0.32 0.33 0.32 0.33 0.38 0.43 0.45 0.43 0.40 0.42 0.45 0.49 0.54 0.58 0.55
0.00 0.01 0.03 0.08 0.09 0.05 0.06 0.11 0.09 0.08 0.10 0.12 0.13 0.11 0.11 0.12 0.14 0.17 0.22 0.26 0.27 0.28 0.27 0.27 0.24 0.23 0.25 0.24 0.25 0.26 0.26 0.29 0.31 0.35 0.38 0.40 0.39 0.37 0.39 0.41 0.44 0.46 0.45
0.00 0.01 0.02 0.05 0.08 0.05 0.06 0.07 0.06 0.07 0.09 0.11 0.11 0.10 0.12 0.17 0.17 0.17 0.17 0.16 0.19 0.20 0.22 0.23 0.22 0.22 0.24 0.24 0.26 0.28 0.30 0.31 0.31 0.33 0.34 0.35 0.38 0.38 0.38 0.39 0.41 0.40 0.41
0.01 0.01 0.02 0.05 0.06 0.04 0.04 0.07 0.08 0.07 0.07 0.09 0.10 0.10 0.12 0.18 0.19 0.18 0.16 0.15 0.15 0.17 0.23 0.26 0.27 0.28 0.27 0.27 0.28 0.30 0.31 0.32 0.32 0.31 0.33 0.34 0.34 0.34 0.36 0.38 0.40 0.40 0.38
0.03 0.03 0.03 0.05 0.06 0.05 0.04 0.05 0.09 0.11 0.09 0.10 0.11 0.11 0.12 0.15 0.17 0.20 0.20 0.19 0.22 0.25 0.23 0.24 0.28 0.29 0.28 0.28 0.30 0.33 0.37 0.37 0.36 0.36 0.37 0.34 0.33 0.32 0.34 0.34 0.35 0.37 0.36
0.03 0.03 0.03 0.05 0.06 0.06 0.06 0.07 0.07 0.07 0.10 0.12 0.13 0.13 0.14 0.17 0.19 0.17 0.18 0.24 0.26 0.25 0.25 0.24 0.24 0.28 0.29 0.30 0.31 0.33 0.35 0.38 0.40 0.41 0.41 0.39 0.37 0.35 0.35 0.36 0.37 0.38 0.42
0.04 0.04 0.05 0.06 0.08 0.08 0.08 0.09 0.08 0.08 0.11 0.15 0.13 0.13 0.13 0.14 0.16 0.14 0.16 0.20 0.23 0.22 0.22 0.22 0.23 0.25 0.27 0.28 0.30 0.32 0.37 0.41 0.43 0.42 0.43 0.44 0.43 0.42 0.39 0.40 0.44 0.46 0.49
0.06 0.06 0.07 0.08 0.09 0.10 0.11 0.12 0.12 0.13 0.14 0.13 0.13 0.15 0.16 0.17 0.18 0.17 0.17 0.18 0.20 0.21 0.21 0.22 0.23 0.25 0.25 0.26 0.31 0.36 0.38 0.36 0.37 0.41 0.42 0.46 0.48 0.46 0.45 0.43 0.43 0.44 0.47

GEFSGL_prec_meanprecacc_138.txt.gz
Total_Precipitation_Accumulation
1.03 1.05 1.04 1.01 0.91 0.90 0.95 0.96 0.95 0.95 0.99 0.98 0.89 0.82 0.89 0.89 0.85 0.91 0.96 1.02 1.10 1.25 1.40 1.53 1.68 1.93 2.21 2.23 2.17 2.04 1.90 1.73 1.48 1.34 1.16 1.08 1.36 1.44 1.37 1.23 1.19 1.15 0.93
0.96 0.98 0.97 0.88 0.82 0.79 0.77 0.74 0.66 0.64 0.67 0.76 0.84 0.79 0.78 0.80 0.82 0.88 0.90 0.94 0.97 1.05 1.15 1.27 1.44 1.74 2.07 2.29 2.37 2.27 2.11 1.93 1.77 1.61 1.30 1.07 1.18 1.49 1.63 1.57 1.33 1.15 1.03
1.05 0.89 0.80 0.76 0.72 0.71 0.62 0.58 0.55 0.50 0.50 0.54 0.63 0.64 0.73 0.80 0.83 0.85 0.87 0.91 0.93 1.02 1.16 1.21 1.27 1.46 1.66 1.87 2.05 2.18 2.16 2.13 2.07 1.82 1.53 1.27 1.21 1.33 1.57 1.59 1.52 1.45 1.24
1.16 1.03 0.87 0.78 0.70 0.65 0.58 0.55 0.51 0.49 0.52 0.58 0.70 0.74 0.70 0.68 0.73 0.84 0.88 0.84 0.83 0.87 0.96 1.05 1.15 1.20 1.35 1.49 1.60 1.79 2.00 2.22 2.28 2.12 1.86 1.54 1.42 1.30 1.40 1.55 1.63 1.56 1.46
1.11 1.09 0.93 0.86 0.79 0.66 0.60 0.61 0.58 0.61 0.57 0.59 0.70 0.81 0.87 0.83 0.80 0.89 0.86 0.84 0.84 0.83 0.88 0.88 0.95 0.97 1.03 1.21 1.26 1.47 1.79 2.05 2.16 2.22 2.10 1.79 1.54 1.36 1.16 1.25 1.49 1.70 1.68
0.76 0.83 0.79 0.70 0.61 0.58 0.58 0.56 0.52 0.51 0.47 0.47 0.51 0.58 0.68 0.72 0.93 0.89 0.74 0.70 0.75 0.82 0.87 0.87 0.89 0.83 0.81 0.87 1.01 1.13 1.43 1.64 1.77 1.83 1.86 1.70 1.49 1.36 1.31 1.27 1.33 1.47 1.52
0.48 0.57 0.56 0.50 0.44 0.41 0.45 0.46 0.43 0.39 0.40 0.38 0.37 0.38 0.44 0.60 0.68 0.52 0.51 0.57 0.71 0.83 0.90 0.92 0.88 0.84 0.88 0.89 0.91 0.92 0.99 1.16 1.37 1.56 1.58 1.48 1.53 1.44 1.37 1.27 1.28 1.29 1.28
0.23 0.27 0.29 0.29 0.28 0.29 0.32 0.32 0.33 0.32 0.30 0.29 0.37 0.44 0.46 0.48 0.54 0.44 0.43 0.54 0.73 0.87 0.87 0.83 0.89 0.91 0.93 1.00 0.93 1.00 0.95 0.93 1.02 1.07 1.20 1.39 1.53 1.68 1.65 1.54 1.55 1.49 1.41
0.07 0.09 0.11 0.13 0.15 0.18 0.19 0.22 0.30 0.33 0.34 0.37 0.49 0.56 0.50 0.42 0.46 0.48 0.53 0.68 0.81 0.89 0.86 0.85 0.93 0.97 1.10 1.15 1.05 1.10 1.06 1.02 0.99 1.10 1.19 1.28 1.36 1.48 1.61 1.62 1.59 1.56 1.44
0.01 0.01 0.02 0.02 0.03 0.06 0.09 0.11 0.17 0.24 0.31 0.39 0.41 0.38 0.38 0.44 0.51 0.50 0.63 0.81 0.93 1.03 0.99 0.98 1.17 1.12 1.09 1.04 1.02 1.16 1.13 0.98 0.91 0.96 1.01 1.07 1.10 1.20 1.32 1.35 1.46 1.52 1.43
0.01 0.01 0.01 0.01 0.01 0.01 0.02 0.03 0.06 0.11 0.15 0.18 0.19 0.23 0.30 0.46 0.52 0.56 0.75 0.85 0.91 1.06 1.08 1.05 0.98 1.11 1.05 0.97 0.97 1.02 1.16 1.03 0.96 1.00 1.00 1.00 1.01 1.03 1.08 1.14 1.25 1.35 1.38
0.01 0.01 0.01 0.01 0.01 0.01 0.02 0.02 0.02 0.04 0.07 0.10 0.13 0.17 0.23 0.31 0.39 0.46 0.60 0.73 0.82 0.99 1.06 0.97 0.87 1.10 1.06 0.96 0.88 0.90 1.04 1.10 1.09 1.12 1.11 1.03 0.94 0.91 0.89 0.95 1.04 1.15 1.23
0.01 0.01 0.01 0.01 0.01 0.01 0.02 0.02 0.02 0.04 0.06 0.08 0.12 0.19 0.25 0.30 0.32 0.39 0.47 0.56 0.68 0.87 0.92 0.94 0.95 0.99 0.91 0.87 0.94 0.97 0.99 1.01 1.09 1.14 1.04 0.89 0.82 0.79 0.84 0.94 1.06 1.15 1.22
0.00 0.01 0.01 0.01 0.02 0.01 0.02 0.03 0.03 0.03 0.06 0.10 0.17 0.23 0.27 0.30 0.32 0.40 0.48 0.52 0.61 0.71 0.73 0.77 0.81 0.78 0.77 0.81 0.87 0.96 1.01 1.06 1.07 1.01 0.90 0.77 0.76 0.80 0.80 0.83 0.95 1.09 1.22
0.00 0.00 0.01 0.01 0.02 0.02 0.02 0.02 0.03 0.03 0.06 0.12 0.16 0.20 0.21 0.24 0.28 0.37 0.50 0.58 0.68 0.78 0.80 0.73 0.75 0.75 0.74 0.74 0.79 0.83 0.86 0.86 0.88 0.86 0.83 0.82 0.80 0.81 0.79 0.77 0.82 0.88 0.91
0.00 0.00 0.01 0.01 0.02 0.03 0.04 0.03 0.02 0.02 0.04 0.06 0.07 0.10 0.17 0.20 0.18 0.21 0.32 0.47 0.63 0.84 1.07 1.07 1.07 1.01 0.92 0.82 0.74 0.68 0.66 0.67 0.70 0.76 0.78 0.76 0.75 0.76 0.80 0.81 0.83 0.86 0.84
0.00 0.00 0.00 0.01 0.02 0.03 0.05 0.09 0.10 0.07 0.03 0.03 0.04 0.07 0.13 0.18 0.18 0.22 0.29 0.34 0.46 0.76 1.12 1.13 1.11 0.97 0.83 0.76 0.66 0.55 0.50 0.52 0.59 0.60 0.64 0.67 0.66 0.67 0.72 0.76 0.77 0.81 0.81
0.00 0.01 0.01 0.02 0.03 0.03 0.04 0.09 0.19 0.25 0.20 0.09 0.05 0.06 0.11 0.19 0.24 0.32 0.42 0.52 0.58 0.72 0.83 0.82 0.75 0.67 0.60 0.51 0.48 0.45 0.41 0.45 0.53 0.54 0.55 0.55 0.54 0.57 0.60 0.67 0.70 0.70 0.73
0.01 0.01 0.04 0.06 0.04 0.03 0.05 0.13 0.18 0.11 0.10 0.12 0.11 0.07 0.08 0.11 0.16 0.23 0.35 0.46 0.48 0.50 0.51 0.46 0.39 0.36 0.36 0.34 0.34 0.35 0.35 0.38 0.43 0.50 0.52 0.49 0.47 0.48 0.51 0.55 0.61 0.68 0.68
0.00 0.01 0.03 0.08 0.09 0.05 0.06 0.11 0.10 0.08 0.10 0.12 0.13 0.11 0.11 0.12 0.14 0.17 0.22 0.26 0.27 0.28 0.28 0.27 0.25 0.24 0.26 0.26 0.27 0.28 0.30 0.33 0.37 0.42 0.44 0.47 0.46 0.44 0.45 0.48 0.52 0.55 0.55
0.00 0.01 0.02 0.05 0.08 0.05 0.06 0.07 0.06 0.07 0.10 0.11 0.11 0.10 0.12 0.17 0.17 0.17 0.17 0.17 0.19 0.21 0.23 0.24 0.23 0.23 0.25 0.26 0.28 0.30 0.34 0.36 0.36 0.41 0.41 0.43 0.46 0.47 0.45 0.46 0.48 0.48 0.49
0.01 0.01 0.02 0.05 0.06 0.04 0.04 0.07 0.08 0.07 0.07 0.09 0.10 0.10 0.13 0.18 0.19 0.18 0.16 0.16 0.16 0.18 0.24 0.27 0.28 0.29 0.28 0.29 0.31 0.34 0.35 0.37 0.38 0.39 0.43 0.42 0.42 0.43 0.45 0.45 0.47 0.47 0.46
0.03 0.03 0.03 0.05 0.06 0.05 0.04 0.05 0.09 0.11 0.09 0.10 0.11 0.11 0.13 0.16 0.17 0.21 0.21 0.20 0.23 0.25 0.24 0.25 0.29 0.31 0.29 0.30 0.32 0.36 0.40 0.40 0.41 0.43 0.46 0.44 0.40 0.41 0.44 0.43 0.44 0.46 0.46
0.03 0.03 0.03 0.05 0.06 0.06 0.06 0.07 0.07 0.07 0.10 0.13 0.13 0.13 0.15 0.17 0.19 0.18 0.19 0.24 0.26 0.25 0.25 0.25 0.26 0.29 0.30 0.31 0.33 0.35 0.37 0.41 0.44 0.46 0.48 0.48 0.45 0.42 0.44 0.46 0.46 0.48 0.52
0.04 0.04 0.05 0.06 0.08 0.08 0.08 0.09 0.08 0.08 0.11 0.15 0.13 0.13 0.13 0.15 0.16 0.15 0.16 0.21 0.24 0.23 0.22 0.23 0.24 0.27 0.28 0.29 0.32 0.34 0.39 0.43 0.46 0.47 0.48 0.51 0.50 0.48 0.46 0.49 0.54 0.56 0.60
0.06 0.06 0.07 0.08 0.09 0.10 0.11 0.12 0.12 0.13 0.14 0.14 0.13 0.15 0.16 0.17 0.19 0.18 0.18 0.19 0.21 0.22 0.22 0.23 0.24 0.26 0.27 0.28 0.32 0.38 0.41 0.38 0.40 0.44 0.46 0.51 0.54 0.53 0.51 0.51 0.52 0.54 0.57